Wetterdaten: Freitag, 11.02.2022
Datum Zeit Temp. Aussen Temp. o. S. Temp +5cm Feuchte Auss Luftdruck Regen Sonnenschein Regendauer Solar Windben Empfang
11.02.2022 00:00 3,4 C 2,8 C 0,6 C 95 % 1022,5 hPa 0,0 l/m 0 min 0 min 0 W/m 16,1 km/h (3 Bft) 93,62 %
11.02.2022 00:02 3,4 C 2,8 C 0,6 C 95 % 1022,5 hPa 0,0 l/m 0 min 0 min 0 W/m 16,1 km/h (3 Bft) 97,67 %
11.02.2022 00:04 3,4 C 2,8 C 0,6 C 95 % 1022,5 hPa 0,0 l/m 0 min 0 min 0 W/m 16,1 km/h (3 Bft) 95,74 %
11.02.2022 00:08 3,4 C 2,8 C 0,6 C 95 % 1022,5 hPa 0,0 l/m 0 min 0 min 0 W/m 16,1 km/h (3 Bft) 96,81 %
11.02.2022 00:10 3,4 C 2,8 C 0,6 C 95 % 1022,6 hPa 0,0 l/m 0 min 0 min 0 W/m 9,7 km/h (2 Bft) 68,09 %
11.02.2022 00:12 3,4 C 2,8 C 0,6 C 95 % 1022,6 hPa 0,0 l/m 0 min 0 min 0 W/m 6,4 km/h (2 Bft) 81,40 %
11.02.2022 00:14 3,4 C 2,8 C 0,6 C 95 % 1022,6 hPa 0,0 l/m 0 min 0 min 0 W/m 9,7 km/h (2 Bft) 97,83 %
11.02.2022 00:16 3,4 C 2,8 C 0,6 C 95 % 1022,6 hPa 0,0 l/m 0 min 0 min 0 W/m 16,1 km/h (3 Bft) 97,87 %
11.02.2022 00:18 3,4 C 2,8 C 0,6 C 95 % 1022,6 hPa 0,0 l/m 0 min 0 min 0 W/m 19,3 km/h (3 Bft) 95,74 %
11.02.2022 00:20 3,4 C 2,8 C 0,6 C 95 % 1022,6 hPa 0,0 l/m 0 min 0 min 0 W/m 6,4 km/h (2 Bft) 97,87 %
11.02.2022 00:22 3,4 C 2,8 C 0,6 C 95 % 1022,6 hPa 0,0 l/m 0 min 0 min 0 W/m 12,9 km/h (3 Bft) 97,87 %
11.02.2022 00:24 3,4 C 2,8 C 0,6 C 95 % 1022,6 hPa 0,0 l/m 0 min 0 min 0 W/m 9,7 km/h (2 Bft) 97,87 %
11.02.2022 00:26 3,4 C 2,8 C 0,6 C 95 % 1022,7 hPa 0,0 l/m 0 min 0 min 0 W/m 9,7 km/h (2 Bft) 100,00 %
11.02.2022 00:28 3,4 C 2,8 C 0,6 C 95 % 1022,7 hPa 0,0 l/m 0 min 0 min 0 W/m 6,4 km/h (2 Bft) 100,00 %
11.02.2022 00:30 3,4 C 2,8 C 0,6 C 95 % 1022,6 hPa 0,0 l/m 0 min 0 min 0 W/m 9,7 km/h (2 Bft) 97,87 %
11.02.2022 00:32 3,4 C 2,8 C 0,6 C 95 % 1022,7 hPa 0,0 l/m 0 min 0 min 0 W/m 12,9 km/h (3 Bft) 97,87 %
11.02.2022 00:34 3,4 C 2,8 C 0,6 C 95 % 1022,7 hPa 0,0 l/m 0 min 0 min 0 W/m 16,1 km/h (3 Bft) 100,00 %
11.02.2022 00:36 3,3 C 2,8 C 0,6 C 95 % 1022,7 hPa 0,0 l/m 0 min 0 min 0 W/m 9,7 km/h (2 Bft) 100,00 %
11.02.2022 00:38 3,3 C 2,8 C 0,6 C 95 % 1022,7 hPa 0,0 l/m 0 min 0 min 0 W/m 9,7 km/h (2 Bft) 97,83 %
11.02.2022 00:40 3,3 C 2,8 C 0,6 C 95 % 1022,8 hPa 0,0 l/m 0 min 0 min 0 W/m 9,7 km/h (2 Bft) 97,87 %
11.02.2022 00:42 3,3 C 2,8 C 0,6 C 95 % 1022,7 hPa 0,0 l/m 0 min 0 min 0 W/m 12,9 km/h (3 Bft) 97,87 %
11.02.2022 00:44 3,3 C 2,8 C 0,6 C 95 % 1022,7 hPa 0,0 l/m 0 min 0 min 0 W/m 6,4 km/h (2 Bft) 97,87 %
11.02.2022 00:46 3,3 C 2,8 C 0,6 C 96 % 1022,7 hPa 0,0 l/m 0 min 0 min 0 W/m 16,1 km/h (3 Bft) 95,74 %
11.02.2022 00:48 3,3 C 2,8 C 0,6 C 96 % 1022,6 hPa 0,0 l/m 0 min 0 min 0 W/m 12,9 km/h (3 Bft) 97,87 %
11.02.2022 00:50 3,3 C 2,8 C 0,6 C 96 % 1022,7 hPa 0,0 l/m 0 min 0 min 0 W/m 9,7 km/h (2 Bft) 97,83 %
11.02.2022 00:52 3,3 C 2,8 C 0,6 C 96 % 1022,7 hPa 0,0 l/m 0 min 0 min 0 W/m 16,1 km/h (3 Bft) 97,87 %
11.02.2022 00:54 3,3 C 2,8 C 0,6 C 96 % 1022,7 hPa 0,0 l/m 0 min 0 min 0 W/m 6,4 km/h (2 Bft) 97,87 %
11.02.2022 00:56 3,3 C 2,8 C 0,6 C 96 % 1022,7 hPa 0,0 l/m 0 min 0 min 0 W/m 16,1 km/h (3 Bft) 97,87 %
11.02.2022 00:58 3,3 C 2,8 C 0,6 C 96 % 1022,7 hPa 0,0 l/m 0 min 0 min 0 W/m 12,9 km/h (3 Bft) 97,87 %
11.02.2022 01:00 3,3 C 2,8 C 0,6 C 96 % 1022,7 hPa 0,0 l/m 0 min 0 min 0 W/m 6,4 km/h (2 Bft) 97,87 %
11.02.2022 01:02 3,3 C 2,8 C 0,6 C 96 % 1022,7 hPa 0,0 l/m 0 min 0 min 0 W/m 6,4 km/h (2 Bft) 97,83 %
11.02.2022 01:04 3,3 C 2,8 C 0,6 C 96 % 1022,6 hPa 0,0 l/m 0 min 0 min 0 W/m 16,1 km/h (3 Bft) 95,74 %
11.02.2022 01:06 3,3 C 2,8 C 0,6 C 96 % 1022,7 hPa 0,0 l/m 0 min 0 min 0 W/m 12,9 km/h (3 Bft) 97,78 %
11.02.2022 01:08 3,2 C 2,8 C 0,6 C 96 % 1022,6 hPa 0,0 l/m 0 min 0 min 0 W/m 12,9 km/h (3 Bft) 95,74 %
11.02.2022 01:10 3,2 C 2,2 C 0,6 C 96 % 1022,6 hPa 0,0 l/m 0 min 0 min 0 W/m 6,4 km/h (2 Bft) 100,00 %
11.02.2022 01:12 3,2 C 2,2 C 0,6 C 96 % 1022,6 hPa 0,0 l/m 0 min 0 min 0 W/m 12,9 km/h (3 Bft) 95,65 %
11.02.2022 01:14 3,2 C 2,2 C 0,0 C 95 % 1022,7 hPa 0,0 l/m 0 min 0 min 0 W/m 9,7 km/h (2 Bft) 97,87 %
11.02.2022 01:16 3,1 C 2,2 C 0,0 C 95 % 1022,7 hPa 0,0 l/m 0 min 0 min 0 W/m 16,1 km/h (3 Bft) 95,74 %
11.02.2022 01:18 3,1 C 2,2 C 0,0 C 95 % 1022,7 hPa 0,0 l/m 0 min 0 min 0 W/m 12,9 km/h (3 Bft) 97,87 %
11.02.2022 01:20 3,1 C 2,2 C 0,0 C 95 % 1022,7 hPa 0,0 l/m 0 min 0 min 0 W/m 16,1 km/h (3 Bft) 93,62 %
11.02.2022 01:22 3,1 C 2,2 C 0,0 C 95 % 1022,7 hPa 0,0 l/m 0 min 0 min 0 W/m 16,1 km/h (3 Bft) 97,87 %
11.02.2022 01:24 3,1 C 2,2 C 0,0 C 95 % 1022,7 hPa 0,0 l/m 0 min 0 min 0 W/m 6,4 km/h (2 Bft) 95,65 %
11.02.2022 01:26 3,0 C 2,2 C 0,0 C 95 % 1022,7 hPa 0,0 l/m 0 min 0 min 0 W/m 9,7 km/h (2 Bft) 97,87 %
11.02.2022 01:28 3,0 C 2,2 C 0,0 C 95 % 1022,6 hPa 0,0 l/m 0 min 0 min 0 W/m 9,7 km/h (2 Bft) 97,87 %
11.02.2022 01:30 2,9 C 2,2 C 0,0 C 95 % 1022,7 hPa 0,0 l/m 0 min 0 min 0 W/m 12,9 km/h (3 Bft) 97,87 %
11.02.2022 01:32 2,9 C 2,2 C 0,0 C 95 % 1022,7 hPa 0,0 l/m 0 min 0 min 0 W/m 12,9 km/h (3 Bft) 97,92 %
11.02.2022 01:34 2,9 C 2,2 C 0,0 C 95 % 1022,7 hPa 0,0 l/m 0 min 0 min 0 W/m 6,4 km/h (2 Bft) 97,87 %
11.02.2022 01:36 2,9 C 2,2 C 0,0 C 95 % 1022,7 hPa 0,0 l/m 0 min 0 min 0 W/m 9,7 km/h (2 Bft) 97,83 %
11.02.2022 01:38 2,9 C 2,2 C 0,0 C 95 % 1022,7 hPa 0,0 l/m 0 min 0 min 0 W/m 9,7 km/h (2 Bft) 95,74 %
11.02.2022 01:40 2,8 C 2,2 C 0,0 C 95 % 1022,7 hPa 0,0 l/m 0 min 0 min 0 W/m 9,7 km/h (2 Bft) 97,87 %
11.02.2022 01:42 2,8 C 2,2 C 0,0 C 95 % 1022,7 hPa 0,0 l/m 0 min 0 min 0 W/m 12,9 km/h (3 Bft) 97,87 %
11.02.2022 01:44 2,8 C 2,2 C 0,0 C 96 % 1022,7 hPa 0,0 l/m 0 min 0 min 0 W/m 9,7 km/h (2 Bft) 97,87 %
11.02.2022 01:46 2,8 C 2,2 C 0,0 C 96 % 1022,7 hPa 0,0 l/m 0 min 0 min 0 W/m 9,7 km/h (2 Bft) 97,87 %
11.02.2022 01:48 2,8 C 1,7 C 0,0 C 95 % 1022,8 hPa 0,0 l/m 0 min 0 min 0 W/m 12,9 km/h (3 Bft) 97,83 %
11.02.2022 01:50 2,8 C 1,7 C 0,0 C 95 % 1022,8 hPa 0,0 l/m 0 min 0 min 0 W/m 6,4 km/h (2 Bft) 95,74 %
11.02.2022 01:52 2,7 C 1,7 C 0,0 C 95 % 1022,8 hPa 0,0 l/m 0 min 0 min 0 W/m 3,2 km/h (1 Bft) 97,87 %
11.02.2022 01:54 2,7 C 1,7 C 0,0 C 95 % 1022,8 hPa 0,0 l/m 0 min 0 min 0 W/m 6,4 km/h (2 Bft) 93,62 %
11.02.2022 01:56 2,7 C 1,7 C 0,0 C 96 % 1022,7 hPa 0,0 l/m 0 min 0 min 0 W/m 9,7 km/h (2 Bft) 97,87 %
11.02.2022 01:58 2,7 C 1,7 C 0,0 C 96 % 1022,7 hPa 0,0 l/m 0 min 0 min 0 W/m 9,7 km/h (2 Bft) 56,52 %
11.02.2022 02:00 2,7 C 1,7 C 0,0 C 96 % 1022,8 hPa 0,0 l/m 0 min 0 min 0 W/m 16,1 km/h (3 Bft) 97,83 %
11.02.2022 02:02 2,7 C 1,7 C 0,0 C 96 % 1022,7 hPa 0,0 l/m 0 min 0 min 0 W/m 6,4 km/h (2 Bft) 97,92 %
11.02.2022 02:04 2,6 C 1,7 C 0,0 C 96 % 1022,7 hPa 0,0 l/m 0 min 0 min 0 W/m 9,7 km/h (2 Bft) 97,87 %
11.02.2022 02:06 2,6 C 1,7 C 0,0 C 96 % 1022,7 hPa 0,0 l/m 0 min 0 min 0 W/m 6,4 km/h (2 Bft) 100,00 %
11.02.2022 02:08 2,6 C 1,7 C 0,0 C 96 % 1022,7 hPa 0,0 l/m 0 min 0 min 0 W/m 12,9 km/h (3 Bft) 97,87 %
11.02.2022 02:10 2,6 C 1,7 C 0,0 C 96 % 1022,6 hPa 0,0 l/m 0 min 0 min 0 W/m 9,7 km/h (2 Bft) 95,65 %
11.02.2022 02:12 2,6 C 1,7 C 0,0 C 96 % 1022,6 hPa 0,0 l/m 0 min 0 min 0 W/m 9,7 km/h (2 Bft) 97,87 %
11.02.2022 02:14 2,6 C 1,7 C 0,0 C 96 % 1022,5 hPa 0,0 l/m 0 min 0 min 0 W/m 6,4 km/h (2 Bft) 91,49 %
11.02.2022 02:16 2,6 C 1,7 C 0,0 C 96 % 1022,6 hPa 0,0 l/m 0 min 0 min 0 W/m 9,7 km/h (2 Bft) 95,74 %
11.02.2022 02:18 2,6 C 1,7 C 0,0 C 96 % 1022,6 hPa 0,0 l/m 0 min 0 min 0 W/m 6,4 km/h (2 Bft) 95,74 %
11.02.2022 02:20 2,6 C 1,7 C 0,0 C 96 % 1022,6 hPa 0,0 l/m 0 min 0 min 0 W/m 6,4 km/h (2 Bft) 97,87 %
11.02.2022 02:22 2,6 C 1,7 C 0,0 C 96 % 1022,7 hPa 0,0 l/m 0 min 0 min 0 W/m 6,4 km/h (2 Bft) 95,65 %
11.02.2022 02:24 2,5 C 1,7 C 0,0 C 96 % 1022,6 hPa 0,0 l/m 0 min 0 min 0 W/m 6,4 km/h (2 Bft) 93,62 %
11.02.2022 02:26 2,5 C 1,7 C 0,0 C 96 % 1022,6 hPa 0,0 l/m 0 min 0 min 0 W/m 6,4 km/h (2 Bft) 95,74 %
11.02.2022 02:28 2,5 C 1,7 C 0,0 C 96 % 1022,5 hPa 0,0 l/m 0 min 0 min 0 W/m 16,1 km/h (3 Bft) 93,62 %
11.02.2022 02:30 2,5 C 1,7 C 0,0 C 96 % 1022,5 hPa 0,0 l/m 0 min 0 min 0 W/m 16,1 km/h (3 Bft) 95,74 %
11.02.2022 02:32 2,5 C 1,7 C 0,0 C 96 % 1022,5 hPa 0,0 l/m 0 min 0 min 0 W/m 12,9 km/h (3 Bft) 95,74 %
11.02.2022 02:34 2,5 C 1,7 C 0,0 C 96 % 1022,6 hPa 0,0 l/m 0 min 0 min 0 W/m 9,7 km/h (2 Bft) 93,48 %
11.02.2022 02:36 2,5 C 1,7 C 0,0 C 96 % 1022,7 hPa 0,0 l/m 0 min 0 min 0 W/m 12,9 km/h (3 Bft) 95,74 %
11.02.2022 02:38 2,5 C 1,7 C 0,0 C 96 % 1022,7 hPa 0,0 l/m 0 min 0 min 0 W/m 9,7 km/h (2 Bft) 95,74 %
11.02.2022 02:40 2,4 C 1,7 C 0,0 C 96 % 1022,7 hPa 0,0 l/m 0 min 0 min 0 W/m 6,4 km/h (2 Bft) 95,74 %
11.02.2022 02:42 2,4 C 1,7 C 0,0 C 96 % 1022,6 hPa 0,0 l/m 0 min 0 min 0 W/m 9,7 km/h (2 Bft) 95,74 %
11.02.2022 02:44 2,4 C 1,7 C 0,0 C 96 % 1022,6 hPa 0,0 l/m 0 min 0 min 0 W/m 9,7 km/h (2 Bft) 95,74 %
11.02.2022 02:46 2,4 C 1,7 C -0,6 C 96 % 1022,7 hPa 0,0 l/m 0 min 0 min 0 W/m 6,4 km/h (2 Bft) 93,48 %
11.02.2022 02:48 2,4 C 1,7 C 0,0 C 96 % 1022,7 hPa 0,0 l/m 0 min 0 min 0 W/m 9,7 km/h (2 Bft) 97,87 %
11.02.2022 02:50 2,4 C 1,7 C -0,6 C 96 % 1022,7 hPa 0,0 l/m 0 min 0 min 0 W/m 12,9 km/h (3 Bft) 97,87 %
11.02.2022 02:52 2,4 C 1,7 C -0,6 C 96 % 1022,7 hPa 0,0 l/m 0 min 0 min 0 W/m 16,1 km/h (3 Bft) 97,87 %
11.02.2022 02:54 2,3 C 1,7 C -0,6 C 96 % 1022,7 hPa 0,0 l/m 0 min 0 min 0 W/m 9,7 km/h (2 Bft) 100,00 %
11.02.2022 02:56 2,3 C 1,7 C 0,0 C 96 % 1022,7 hPa 0,0 l/m 0 min 0 min 0 W/m 9,7 km/h (2 Bft) 100,00 %
11.02.2022 02:58 2,3 C 1,7 C -0,6 C 96 % 1022,7 hPa 0,0 l/m 0 min 0 min 0 W/m 9,7 km/h (2 Bft) 100,00 %
11.02.2022 03:00 2,3 C 1,7 C -0,6 C 96 % 1022,7 hPa 0,0 l/m 0 min 0 min 0 W/m 9,7 km/h (2 Bft) 97,87 %
11.02.2022 03:02 2,3 C 1,7 C -0,6 C 96 % 1022,7 hPa 0,0 l/m 0 min 0 min 0 W/m 6,4 km/h (2 Bft) 100,00 %
11.02.2022 03:04 2,3 C 1,7 C -0,6 C 96 % 1022,7 hPa 0,0 l/m 0 min 0 min 0 W/m 9,7 km/h (2 Bft) 100,00 %
11.02.2022 03:06 2,3 C 1,7 C -0,6 C 96 % 1022,7 hPa 0,0 l/m 0 min 0 min 0 W/m 12,9 km/h (3 Bft) 100,00 %
11.02.2022 03:08 2,2 C 1,7 C -0,6 C 96 % 1022,6 hPa 0,0 l/m 0 min 0 min 0 W/m 6,4 km/h (2 Bft) 100,00 %
11.02.2022 03:10 2,2 C 1,1 C -0,6 C 96 % 1022,7 hPa 0,0 l/m 0 min 0 min 0 W/m 9,7 km/h (2 Bft) 97,87 %
11.02.2022 03:12 2,2 C 1,1 C -0,6 C 96 % 1022,6 hPa 0,0 l/m 0 min 0 min 0 W/m 9,7 km/h (2 Bft) 97,83 %
11.02.2022 03:14 2,2 C 1,7 C -0,6 C 96 % 1022,6 hPa 0,0 l/m 0 min 0 min 0 W/m 6,4 km/h (2 Bft) 100,00 %
11.02.2022 03:16 2,2 C 1,7 C -0,6 C 96 % 1022,6 hPa 0,0 l/m 0 min 0 min 0 W/m 12,9 km/h (3 Bft) 97,87 %
11.02.2022 03:18 2,2 C 1,7 C -0,6 C 96 % 1022,6 hPa 0,0 l/m 0 min 0 min 0 W/m 12,9 km/h (3 Bft) 100,00 %
11.02.2022 03:20 2,2 C 1,7 C -0,6 C 96 % 1022,6 hPa 0,0 l/m 0 min 0 min 0 W/m 9,7 km/h (2 Bft) 100,00 %
11.02.2022 03:22 2,2 C 1,7 C -0,6 C 96 % 1022,6 hPa 0,0 l/m 0 min 0 min 0 W/m 12,9 km/h (3 Bft) 100,00 %
11.02.2022 03:24 2,2 C 1,7 C -0,6 C 96 % 1022,6 hPa 0,0 l/m 0 min 0 min 0 W/m 12,9 km/h (3 Bft) 100,00 %
11.02.2022 03:26 2,2 C 1,7 C -0,6 C 96 % 1022,6 hPa 0,0 l/m 0 min 0 min 0 W/m 25,7 km/h (4 Bft) 100,00 %
11.02.2022 03:28 2,2 C 1,7 C -0,6 C 96 % 1022,6 hPa 0,0 l/m 0 min 0 min 0 W/m 19,3 km/h (3 Bft) 100,00 %
11.02.2022 03:30 2,2 C 1,7 C -0,6 C 96 % 1022,6 hPa 0,0 l/m 0 min 0 min 0 W/m 16,1 km/h (3 Bft) 100,00 %
11.02.2022 03:32 2,2 C 1,7 C -0,6 C 96 % 1022,5 hPa 0,0 l/m 0 min 0 min 0 W/m 16,1 km/h (3 Bft) 100,00 %
11.02.2022 03:34 2,2 C 1,7 C -0,6 C 96 % 1022,6 hPa 0,0 l/m 0 min 0 min 0 W/m 12,9 km/h (3 Bft) 97,87 %
11.02.2022 03:36 2,2 C 1,7 C -0,6 C 96 % 1022,6 hPa 0,0 l/m 0 min 0 min 0 W/m 9,7 km/h (2 Bft) 100,00 %
11.02.2022 03:38 2,2 C 1,7 C -0,6 C 96 % 1022,6 hPa 0,0 l/m 0 min 0 min 0 W/m 12,9 km/h (3 Bft) 57,45 %
11.02.2022 03:40 2,2 C 1,7 C -0,6 C 96 % 1022,6 hPa 0,0 l/m 0 min 0 min 0 W/m 9,7 km/h (2 Bft) 100,00 %
11.02.2022 03:42 2,2 C 1,7 C -0,6 C 96 % 1022,6 hPa 0,0 l/m 0 min 0 min 0 W/m 6,4 km/h (2 Bft) 100,00 %
11.02.2022 03:44 2,2 C 1,7 C -0,6 C 96 % 1022,6 hPa 0,0 l/m 0 min 0 min 0 W/m 12,9 km/h (3 Bft) 100,00 %
11.02.2022 03:46 2,2 C 1,7 C -0,6 C 96 % 1022,6 hPa 0,0 l/m 0 min 0 min 0 W/m 12,9 km/h (3 Bft) 97,83 %
11.02.2022 03:48 2,2 C 1,1 C -0,6 C 96 % 1022,7 hPa 0,0 l/m 0 min 0 min 0 W/m 12,9 km/h (3 Bft) 97,87 %
11.02.2022 03:50 2,2 C 1,7 C -0,6 C 96 % 1022,7 hPa 0,0 l/m 0 min 0 min 0 W/m 16,1 km/h (3 Bft) 100,00 %
11.02.2022 03:52 2,2 C 1,7 C -0,6 C 96 % 1022,7 hPa 0,0 l/m 0 min 0 min 0 W/m 12,9 km/h (3 Bft) 100,00 %
11.02.2022 03:54 2,2 C 1,7 C -0,6 C 96 % 1022,7 hPa 0,0 l/m 0 min 0 min 0 W/m 12,9 km/h (3 Bft) 100,00 %
11.02.2022 03:56 2,2 C 1,7 C -0,6 C 96 % 1022,7 hPa 0,0 l/m 0 min 0 min 0 W/m 12,9 km/h (3 Bft) 100,00 %
11.02.2022 03:58 2,2 C 1,1 C -0,6 C 96 % 1022,7 hPa 0,0 l/m 0 min 0 min 0 W/m 6,4 km/h (2 Bft) 100,00 %
11.02.2022 04:00 2,2 C 1,1 C -0,6 C 96 % 1022,7 hPa 0,0 l/m 0 min 0 min 0 W/m 9,7 km/h (2 Bft) 100,00 %
11.02.2022 04:02 2,1 C 1,1 C -0,6 C 96 % 1022,6 hPa 0,0 l/m 0 min 0 min 0 W/m 9,7 km/h (2 Bft) 100,00 %
11.02.2022 04:04 2,1 C 1,7 C -0,6 C 96 % 1022,7 hPa 0,0 l/m 0 min 0 min 0 W/m 19,3 km/h (3 Bft) 95,74 %
11.02.2022 04:06 2,1 C 1,7 C -0,6 C 96 % 1022,6 hPa 0,0 l/m 0 min 0 min 0 W/m 9,7 km/h (2 Bft) 93,62 %
11.02.2022 04:08 2,1 C 1,1 C -0,6 C 96 % 1022,6 hPa 0,0 l/m 0 min 0 min 0 W/m 9,7 km/h (2 Bft) 97,83 %
11.02.2022 04:10 2,1 C 1,1 C -0,6 C 97 % 1022,5 hPa 0,0 l/m 0 min 0 min 0 W/m 16,1 km/h (3 Bft) 96,77 %
11.02.2022 04:15 2,1 C 1,1 C -0,6 C 96 % 1022,5 hPa 0,0 l/m 0 min 0 min 0 W/m 16,1 km/h (3 Bft) 92,00 %
11.02.2022 04:16 2,1 C 1,1 C -0,6 C 97 % 1022,5 hPa 0,0 l/m 0 min 0 min 0 W/m 6,4 km/h (2 Bft) 100,00 %
11.02.2022 04:18 2,1 C 1,1 C -0,6 C 96 % 1022,6 hPa 0,0 l/m 0 min 0 min 0 W/m 6,4 km/h (2 Bft) 97,87 %
11.02.2022 04:20 2,1 C 1,1 C -0,6 C 96 % 1022,6 hPa 0,0 l/m 0 min 0 min 0 W/m 12,9 km/h (3 Bft) 97,83 %
11.02.2022 04:22 2,1 C 1,1 C -0,6 C 96 % 1022,7 hPa 0,0 l/m 0 min 0 min 0 W/m 9,7 km/h (2 Bft) 97,87 %
11.02.2022 04:24 2,1 C 1,1 C -0,6 C 96 % 1022,6 hPa 0,0 l/m 0 min 0 min 0 W/m 6,4 km/h (2 Bft) 95,74 %
11.02.2022 04:26 2,1 C 1,1 C -0,6 C 96 % 1022,6 hPa 0,0 l/m 0 min 0 min 0 W/m 16,1 km/h (3 Bft) 93,62 %
11.02.2022 04:28 2,1 C 1,1 C -0,6 C 96 % 1022,6 hPa 0,0 l/m 0 min 0 min 0 W/m 19,3 km/h (3 Bft) 91,49 %
11.02.2022 04:30 2,1 C 1,1 C -0,6 C 96 % 1022,7 hPa 0,0 l/m 0 min 0 min 0 W/m 9,7 km/h (2 Bft) 93,62 %
11.02.2022 04:32 2,1 C 1,1 C -0,6 C 96 % 1022,6 hPa 0,0 l/m 0 min 0 min 0 W/m 16,1 km/h (3 Bft) 93,48 %
11.02.2022 04:34 2,1 C 1,7 C -0,6 C 96 % 1022,6 hPa 0,0 l/m 0 min 0 min 0 W/m 9,7 km/h (2 Bft) 93,62 %
11.02.2022 04:36 2,1 C 1,7 C -0,6 C 96 % 1022,6 hPa 0,0 l/m 0 min 0 min 0 W/m 16,1 km/h (3 Bft) 93,62 %
11.02.2022 04:38 2,1 C 1,7 C -0,6 C 96 % 1022,6 hPa 0,0 l/m 0 min 0 min 0 W/m 12,9 km/h (3 Bft) 93,62 %
11.02.2022 04:40 2,1 C 1,7 C -0,6 C 97 % 1022,7 hPa 0,0 l/m 0 min 0 min 0 W/m 16,1 km/h (3 Bft) 95,74 %
11.02.2022 04:42 2,1 C 1,7 C -0,6 C 97 % 1022,7 hPa 0,0 l/m 0 min 0 min 0 W/m 16,1 km/h (3 Bft) 95,74 %
11.02.2022 04:44 2,2 C 1,7 C 0,0 C 97 % 1022,7 hPa 0,0 l/m 0 min 0 min 0 W/m 12,9 km/h (3 Bft) 95,65 %
11.02.2022 04:46 2,2 C 1,7 C 0,0 C 97 % 1022,7 hPa 0,0 l/m 0 min 0 min 0 W/m 6,4 km/h (2 Bft) 95,74 %
11.02.2022 04:48 2,2 C 1,7 C 0,0 C 97 % 1022,8 hPa 0,0 l/m 0 min 0 min 0 W/m 12,9 km/h (3 Bft) 93,62 %
11.02.2022 04:50 2,2 C 1,7 C 0,0 C 97 % 1022,9 hPa 0,0 l/m 0 min 0 min 0 W/m 12,9 km/h (3 Bft) 95,74 %
11.02.2022 04:52 2,3 C 1,7 C 0,0 C 97 % 1022,9 hPa 0,0 l/m 0 min 0 min 0 W/m 6,4 km/h (2 Bft) 95,74 %
11.02.2022 04:54 2,3 C 2,2 C 0,0 C 97 % 1023,0 hPa 0,2 l/m 0 min 2 min 0 W/m 16,1 km/h (3 Bft) 95,74 %
11.02.2022 04:56 2,3 C 2,2 C 0,0 C 97 % 1023,0 hPa 0,0 l/m 0 min 2 min 0 W/m 19,3 km/h (3 Bft) 95,65 %
11.02.2022 04:58 2,4 C 2,2 C 0,0 C 97 % 1023,0 hPa 0,0 l/m 0 min 2 min 0 W/m 16,1 km/h (3 Bft) 95,74 %
11.02.2022 05:00 2,5 C 2,2 C 0,0 C 97 % 1023,1 hPa 0,0 l/m 0 min 2 min 0 W/m 12,9 km/h (3 Bft) 93,62 %
11.02.2022 05:02 2,6 C 2,2 C 0,0 C 97 % 1023,0 hPa 0,0 l/m 0 min 2 min 0 W/m 12,9 km/h (3 Bft) 97,87 %
11.02.2022 05:04 2,6 C 2,2 C 0,0 C 97 % 1023,0 hPa 0,0 l/m 0 min 2 min 0 W/m 16,1 km/h (3 Bft) 95,74 %
11.02.2022 05:06 2,6 C 2,2 C 0,0 C 97 % 1023,1 hPa 0,2 l/m 0 min 2 min 0 W/m 6,4 km/h (2 Bft) 97,87 %
11.02.2022 05:08 2,6 C 2,2 C 0,0 C 97 % 1023,2 hPa 0,0 l/m 0 min 2 min 0 W/m 16,1 km/h (3 Bft) 97,83 %
11.02.2022 05:10 2,7 C 2,2 C 0,6 C 97 % 1023,2 hPa 0,0 l/m 0 min 2 min 0 W/m 12,9 km/h (3 Bft) 100,00 %
11.02.2022 05:12 2,7 C 2,2 C 0,6 C 97 % 1023,2 hPa 0,0 l/m 0 min 2 min 0 W/m 6,4 km/h (2 Bft) 97,87 %
11.02.2022 05:14 2,7 C 2,2 C 0,6 C 97 % 1023,1 hPa 0,0 l/m 0 min 2 min 0 W/m 12,9 km/h (3 Bft) 97,87 %
11.02.2022 05:16 2,7 C 2,2 C 0,6 C 97 % 1023,1 hPa 0,0 l/m 0 min 2 min 0 W/m 9,7 km/h (2 Bft) 68,09 %
11.02.2022 05:18 2,8 C 2,2 C 0,6 C 97 % 1023,1 hPa 0,2 l/m 0 min 2 min 0 W/m 6,4 km/h (2 Bft) 81,82 %
11.02.2022 05:20 2,8 C 2,2 C 0,6 C 97 % 1023,1 hPa 0,0 l/m 0 min 2 min 0 W/m 12,9 km/h (3 Bft) 100,00 %
11.02.2022 05:22 2,8 C 2,2 C 0,6 C 96 % 1023,1 hPa 0,0 l/m 0 min 2 min 0 W/m 12,9 km/h (3 Bft) 97,87 %
11.02.2022 05:24 2,8 C 2,2 C 0,6 C 96 % 1023,1 hPa 0,0 l/m 0 min 2 min 0 W/m 6,4 km/h (2 Bft) 100,00 %
11.02.2022 05:26 2,8 C 2,2 C 0,6 C 97 % 1023,2 hPa 0,0 l/m 0 min 0 min 0 W/m 12,9 km/h (3 Bft) 97,87 %
11.02.2022 05:28 2,8 C 2,2 C 0,6 C 97 % 1023,2 hPa 0,0 l/m 0 min 0 min 0 W/m 16,1 km/h (3 Bft) 100,00 %
11.02.2022 05:30 2,9 C 2,2 C 0,6 C 97 % 1023,2 hPa 0,0 l/m 0 min 0 min 0 W/m 12,9 km/h (3 Bft) 100,00 %
11.02.2022 05:32 2,9 C 2,2 C 0,6 C 97 % 1023,2 hPa 0,0 l/m 0 min 0 min 0 W/m 12,9 km/h (3 Bft) 97,96 %
11.02.2022 05:34 2,9 C 2,2 C 0,6 C 97 % 1023,3 hPa 0,0 l/m 0 min 0 min 0 W/m 6,4 km/h (2 Bft) 100,00 %
11.02.2022 05:36 2,9 C 2,2 C 0,6 C 97 % 1023,2 hPa 0,0 l/m 0 min 0 min 0 W/m 9,7 km/h (2 Bft) 97,87 %
11.02.2022 05:38 2,9 C 2,2 C 0,6 C 97 % 1023,3 hPa 0,0 l/m 0 min 0 min 0 W/m 12,9 km/h (3 Bft) 100,00 %
11.02.2022 05:40 3,0 C 2,2 C 0,6 C 97 % 1023,3 hPa 0,0 l/m 0 min 0 min 0 W/m 6,4 km/h (2 Bft) 100,00 %
11.02.2022 05:42 3,0 C 2,2 C 0,6 C 96 % 1023,3 hPa 0,0 l/m 0 min 2 min 0 W/m 19,3 km/h (3 Bft) 97,87 %
11.02.2022 05:44 3,0 C 2,2 C 0,6 C 96 % 1023,4 hPa 0,0 l/m 0 min 2 min 0 W/m 16,1 km/h (3 Bft) 97,83 %
11.02.2022 05:46 3,1 C 2,2 C 0,6 C 96 % 1023,3 hPa 0,0 l/m 0 min 2 min 0 W/m 12,9 km/h (3 Bft) 100,00 %
11.02.2022 05:48 3,1 C 2,2 C 0,6 C 96 % 1023,4 hPa 0,0 l/m 0 min 0 min 0 W/m 12,9 km/h (3 Bft) 100,00 %
11.02.2022 05:50 3,1 C 2,2 C 0,6 C 96 % 1023,3 hPa 0,0 l/m 0 min 0 min 0 W/m 9,7 km/h (2 Bft) 97,87 %
11.02.2022 05:52 3,1 C 2,2 C 0,6 C 96 % 1023,3 hPa 0,0 l/m 0 min 2 min 0 W/m 16,1 km/h (3 Bft) 100,00 %
11.02.2022 05:54 3,1 C 2,8 C 0,6 C 96 % 1023,4 hPa 0,0 l/m 0 min 0 min 0 W/m 19,3 km/h (3 Bft) 100,00 %
11.02.2022 05:56 3,1 C 2,8 C 0,6 C 96 % 1023,3 hPa 0,0 l/m 0 min 0 min 0 W/m 22,5 km/h (4 Bft) 100,00 %
11.02.2022 05:58 3,2 C 2,8 C 0,6 C 96 % 1023,4 hPa 0,0 l/m 0 min 0 min 0 W/m 9,7 km/h (2 Bft) 97,87 %
11.02.2022 06:00 3,2 C 2,2 C 0,6 C 96 % 1023,5 hPa 0,0 l/m 0 min 0 min 0 W/m 22,5 km/h (4 Bft) 100,00 %
11.02.2022 06:02 3,1 C 2,2 C 0,6 C 96 % 1023,4 hPa 0,0 l/m 0 min 0 min 0 W/m 16,1 km/h (3 Bft) 96,61 %
11.02.2022 06:04 3,2 C 2,2 C 0,6 C 96 % 1023,5 hPa 0,0 l/m 0 min 0 min 0 W/m 16,1 km/h (3 Bft) 97,14 %
11.02.2022 06:08 3,2 C 2,2 C 0,6 C 96 % 1023,4 hPa 0,0 l/m 0 min 0 min 0 W/m 22,5 km/h (4 Bft) 98,00 %
11.02.2022 06:10 3,1 C 2,2 C 0,6 C 96 % 1023,5 hPa 0,0 l/m 0 min 0 min 0 W/m 16,1 km/h (3 Bft) 95,74 %
11.02.2022 06:12 3,1 C 2,2 C 0,6 C 96 % 1023,5 hPa 0,0 l/m 0 min 0 min 0 W/m 16,1 km/h (3 Bft) 95,74 %
11.02.2022 06:14 3,1 C 2,2 C 0,6 C 96 % 1023,5 hPa 0,0 l/m 0 min 0 min 0 W/m 16,1 km/h (3 Bft) 97,87 %
11.02.2022 06:16 3,2 C 2,8 C 0,6 C 96 % 1023,6 hPa 0,0 l/m 0 min 0 min 0 W/m 12,9 km/h (3 Bft) 97,87 %
11.02.2022 06:18 3,2 C 2,8 C 0,6 C 96 % 1023,5 hPa 0,0 l/m 0 min 0 min 0 W/m 12,9 km/h (3 Bft) 95,65 %
11.02.2022 06:20 3,2 C 2,8 C 0,6 C 96 % 1023,6 hPa 0,0 l/m 0 min 0 min 0 W/m 12,9 km/h (3 Bft) 97,87 %
11.02.2022 06:22 3,2 C 2,8 C 0,6 C 96 % 1023,5 hPa 0,0 l/m 0 min 0 min 0 W/m 12,9 km/h (3 Bft) 97,87 %
11.02.2022 06:24 3,3 C 2,8 C 0,6 C 96 % 1023,6 hPa 0,0 l/m 0 min 0 min 0 W/m 16,1 km/h (3 Bft) 95,74 %
11.02.2022 06:26 3,3 C 2,8 C 0,6 C 96 % 1023,6 hPa 0,0 l/m 0 min 0 min 0 W/m 19,3 km/h (3 Bft) 95,74 %
11.02.2022 06:28 3,3 C 2,8 C 0,6 C 96 % 1023,7 hPa 0,0 l/m 0 min 0 min 0 W/m 12,9 km/h (3 Bft) 97,87 %
11.02.2022 06:30 3,3 C 2,8 C 0,6 C 96 % 1023,7 hPa 0,0 l/m 0 min 0 min 0 W/m 16,1 km/h (3 Bft) 97,83 %
11.02.2022 06:32 3,3 C 2,8 C 0,6 C 96 % 1023,8 hPa 0,0 l/m 0 min 0 min 0 W/m 16,1 km/h (3 Bft) 97,87 %
11.02.2022 06:34 3,3 C 2,8 C 0,6 C 96 % 1023,8 hPa 0,0 l/m 0 min 0 min 0 W/m 16,1 km/h (3 Bft) 97,87 %
11.02.2022 06:36 3,3 C 2,8 C 0,6 C 96 % 1023,8 hPa 0,0 l/m 0 min 0 min 0 W/m 22,5 km/h (4 Bft) 97,87 %
11.02.2022 06:38 3,4 C 2,8 C 0,6 C 96 % 1023,9 hPa 0,0 l/m 0 min 0 min 0 W/m 22,5 km/h (4 Bft) 100,00 %
11.02.2022 06:40 3,4 C 2,8 C 0,6 C 96 % 1023,8 hPa 0,0 l/m 0 min 0 min 0 W/m 29,0 km/h (5 Bft) 100,00 %
11.02.2022 06:42 3,4 C 2,8 C 0,6 C 95 % 1024,0 hPa 0,0 l/m 0 min 0 min 0 W/m 16,1 km/h (3 Bft) 100,00 %
11.02.2022 06:44 3,4 C 2,8 C 0,6 C 95 % 1024,0 hPa 0,0 l/m 0 min 0 min 0 W/m 19,3 km/h (3 Bft) 97,87 %
11.02.2022 06:46 3,5 C 2,8 C 0,6 C 95 % 1023,9 hPa 0,0 l/m 0 min 0 min 0 W/m 19,3 km/h (3 Bft) 95,74 %
11.02.2022 06:48 3,5 C 2,8 C 0,6 C 95 % 1024,0 hPa 0,0 l/m 0 min 0 min 0 W/m 16,1 km/h (3 Bft) 97,87 %
11.02.2022 06:50 3,5 C 2,8 C 0,6 C 95 % 1024,1 hPa 0,0 l/m 0 min 0 min 0 W/m 29,0 km/h (5 Bft) 97,87 %
11.02.2022 06:52 3,5 C 2,8 C 0,6 C 95 % 1024,0 hPa 0,0 l/m 0 min 0 min 0 W/m 29,0 km/h (5 Bft) 97,87 %
11.02.2022 06:54 3,6 C 2,8 C 0,6 C 95 % 1024,1 hPa 0,0 l/m 0 min 2 min 0 W/m 22,5 km/h (4 Bft) 97,83 %
11.02.2022 06:56 3,6 C 2,8 C 1,1 C 95 % 1024,1 hPa 0,0 l/m 0 min 2 min 0 W/m 16,1 km/h (3 Bft) 97,87 %
11.02.2022 06:58 3,6 C 2,8 C 1,1 C 95 % 1024,2 hPa 0,0 l/m 0 min 2 min 0 W/m 19,3 km/h (3 Bft) 97,87 %
11.02.2022 07:00 3,6 C 2,8 C 1,1 C 95 % 1024,2 hPa 0,0 l/m 0 min 0 min 0 W/m 16,1 km/h (3 Bft) 97,87 %
11.02.2022 07:02 3,6 C 2,8 C 1,1 C 95 % 1024,1 hPa 0,0 l/m 0 min 2 min 0 W/m 19,3 km/h (3 Bft) 95,74 %
11.02.2022 07:04 3,6 C 2,8 C 1,1 C 95 % 1024,2 hPa 0,0 l/m 0 min 0 min 0 W/m 19,3 km/h (3 Bft) 97,87 %
11.02.2022 07:06 3,7 C 2,8 C 1,1 C 95 % 1024,2 hPa 0,0 l/m 0 min 0 min 0 W/m 16,1 km/h (3 Bft) 97,83 %
11.02.2022 07:08 3,7 C 3,3 C 1,1 C 95 % 1024,3 hPa 0,0 l/m 0 min 0 min 0 W/m 16,1 km/h (3 Bft) 97,87 %
11.02.2022 07:10 3,7 C 3,3 C 1,1 C 95 % 1024,3 hPa 0,0 l/m 0 min 0 min 0 W/m 16,1 km/h (3 Bft) 97,87 %
11.02.2022 07:12 3,7 C 3,3 C 1,1 C 95 % 1024,4 hPa 0,0 l/m 0 min 0 min 0 W/m 19,3 km/h (3 Bft) 97,87 %
11.02.2022 07:14 3,7 C 3,3 C 1,1 C 95 % 1024,4 hPa 0,0 l/m 0 min 0 min 0 W/m 16,1 km/h (3 Bft) 97,87 %
11.02.2022 07:16 3,7 C 3,3 C 1,1 C 95 % 1024,4 hPa 0,0 l/m 0 min 0 min 0 W/m 12,9 km/h (3 Bft) 93,62 %
11.02.2022 07:18 3,7 C 3,3 C 1,1 C 95 % 1024,4 hPa 0,0 l/m 0 min 0 min 0 W/m 19,3 km/h (3 Bft) 97,83 %
11.02.2022 07:20 3,7 C 3,3 C 1,1 C 95 % 1024,4 hPa 0,0 l/m 0 min 0 min 0 W/m 16,1 km/h (3 Bft) 97,87 %
11.02.2022 07:22 3,8 C 3,3 C 1,1 C 95 % 1024,5 hPa 0,0 l/m 0 min 0 min 0 W/m 16,1 km/h (3 Bft) 95,74 %
11.02.2022 07:24 3,8 C 3,3 C 1,1 C 95 % 1024,6 hPa 0,0 l/m 0 min 0 min 0 W/m 12,9 km/h (3 Bft) 97,87 %
11.02.2022 07:26 3,8 C 3,3 C 1,1 C 95 % 1024,6 hPa 0,0 l/m 0 min 0 min 0 W/m 25,7 km/h (4 Bft) 100,00 %
11.02.2022 07:28 3,8 C 3,3 C 1,1 C 95 % 1024,6 hPa 0,0 l/m 0 min 0 min 0 W/m 16,1 km/h (3 Bft) 100,00 %
11.02.2022 07:30 3,8 C 3,3 C 1,1 C 95 % 1024,6 hPa 0,0 l/m 0 min 0 min 0 W/m 12,9 km/h (3 Bft) 100,00 %
11.02.2022 07:32 3,8 C 3,3 C 1,1 C 95 % 1024,7 hPa 0,0 l/m 0 min 0 min 0 W/m 22,5 km/h (4 Bft) 100,00 %
11.02.2022 07:34 3,9 C 3,3 C 1,1 C 95 % 1024,7 hPa 0,0 l/m 0 min 0 min 0 W/m 19,3 km/h (3 Bft) 100,00 %
11.02.2022 07:36 3,9 C 3,3 C 1,1 C 95 % 1024,7 hPa 0,0 l/m 0 min 0 min 0 W/m 16,1 km/h (3 Bft) 100,00 %
11.02.2022 07:38 3,9 C 3,3 C 1,1 C 95 % 1024,7 hPa 0,0 l/m 0 min 0 min 0 W/m 19,3 km/h (3 Bft) 100,00 %
11.02.2022 07:40 3,9 C 3,3 C 1,1 C 94 % 1024,8 hPa 0,0 l/m 0 min 0 min 0 W/m 22,5 km/h (4 Bft) 100,00 %
11.02.2022 07:42 3,9 C 3,3 C 1,1 C 94 % 1024,9 hPa 0,0 l/m 0 min 0 min 0 W/m 19,3 km/h (3 Bft) 95,74 %
11.02.2022 07:44 3,9 C 3,3 C 1,1 C 95 % 1024,9 hPa 0,0 l/m 0 min 0 min 0 W/m 19,3 km/h (3 Bft) 97,87 %
11.02.2022 07:46 4,0 C 3,3 C 1,1 C 94 % 1025,0 hPa 0,0 l/m 0 min 0 min 0 W/m 12,9 km/h (3 Bft) 97,87 %
11.02.2022 07:48 4,0 C 3,3 C 1,1 C 94 % 1025,0 hPa 0,0 l/m 0 min 0 min 0 W/m 19,3 km/h (3 Bft) 97,87 %
11.02.2022 07:50 4,0 C 3,3 C 1,1 C 94 % 1025,0 hPa 0,0 l/m 0 min 0 min 0 W/m 25,7 km/h (4 Bft) 95,74 %
11.02.2022 07:52 4,0 C 3,3 C 1,1 C 94 % 1025,1 hPa 0,0 l/m 0 min 0 min 0 W/m 19,3 km/h (3 Bft) 97,83 %
11.02.2022 07:54 4,0 C 3,3 C 1,1 C 94 % 1025,2 hPa 0,0 l/m 0 min 0 min 0 W/m 19,3 km/h (3 Bft) 95,74 %
11.02.2022 07:56 4,0 C 3,3 C 1,1 C 94 % 1025,2 hPa 0,0 l/m 0 min 0 min 0 W/m 19,3 km/h (3 Bft) 93,62 %
11.02.2022 07:58 4,0 C 3,3 C 1,1 C 94 % 1025,3 hPa 0,0 l/m 0 min 0 min 0 W/m 19,3 km/h (3 Bft) 93,62 %
11.02.2022 08:00 4,0 C 3,3 C 1,1 C 94 % 1025,4 hPa 0,0 l/m 0 min 0 min 4 W/m 16,1 km/h (3 Bft) 95,74 %
11.02.2022 08:02 4,0 C 3,3 C 1,1 C 94 % 1025,4 hPa 0,0 l/m 0 min 0 min 5 W/m 22,5 km/h (4 Bft) 93,62 %
11.02.2022 08:04 3,9 C 3,3 C 1,1 C 94 % 1025,4 hPa 0,0 l/m 0 min 0 min 5 W/m 16,1 km/h (3 Bft) 95,65 %
11.02.2022 08:06 3,9 C 3,3 C 1,1 C 94 % 1025,5 hPa 0,0 l/m 0 min 0 min 6 W/m 16,1 km/h (3 Bft) 95,74 %
11.02.2022 08:08 3,9 C 3,3 C 1,1 C 94 % 1025,6 hPa 0,0 l/m 0 min 0 min 7 W/m 19,3 km/h (3 Bft) 95,74 %
11.02.2022 08:10 3,9 C 3,3 C 1,1 C 94 % 1025,6 hPa 0,0 l/m 0 min 0 min 7 W/m 12,9 km/h (3 Bft) 93,62 %
11.02.2022 08:12 3,9 C 3,3 C 1,1 C 94 % 1025,6 hPa 0,0 l/m 0 min 0 min 7 W/m 16,1 km/h (3 Bft) 95,74 %
11.02.2022 08:14 3,9 C 3,3 C 1,1 C 94 % 1025,7 hPa 0,0 l/m 0 min 0 min 7 W/m 16,1 km/h (3 Bft) 95,74 %
11.02.2022 08:16 3,9 C 3,3 C 1,1 C 94 % 1025,7 hPa 0,0 l/m 0 min 0 min 10 W/m 16,1 km/h (3 Bft) 91,30 %
11.02.2022 08:18 3,9 C 3,3 C 1,1 C 94 % 1025,8 hPa 0,0 l/m 0 min 0 min 9 W/m 19,3 km/h (3 Bft) 95,74 %
11.02.2022 08:20 3,9 C 3,3 C 1,1 C 94 % 1025,9 hPa 0,0 l/m 0 min 0 min 11 W/m 25,7 km/h (4 Bft) 97,87 %
11.02.2022 08:22 3,9 C 3,3 C 1,1 C 94 % 1025,9 hPa 0,0 l/m 0 min 0 min 17 W/m 22,5 km/h (4 Bft) 97,87 %
11.02.2022 08:24 3,9 C 3,3 C 1,1 C 94 % 1025,9 hPa 0,0 l/m 0 min 0 min 28 W/m 19,3 km/h (3 Bft) 97,87 %
11.02.2022 08:26 3,9 C 3,3 C 1,1 C 94 % 1026,0 hPa 0,0 l/m 0 min 0 min 25 W/m 19,3 km/h (3 Bft) 95,74 %
11.02.2022 08:28 3,9 C 3,3 C 1,1 C 94 % 1026,0 hPa 0,0 l/m 0 min 2 min 19 W/m 19,3 km/h (3 Bft) 97,83 %
11.02.2022 08:30 4,0 C 3,3 C 1,1 C 94 % 1026,1 hPa 0,0 l/m 0 min 2 min 14 W/m 16,1 km/h (3 Bft) 97,87 %
11.02.2022 08:32 4,0 C 3,3 C 1,1 C 94 % 1026,2 hPa 0,0 l/m 0 min 2 min 16 W/m 22,5 km/h (4 Bft) 96,00 %
11.02.2022 08:34 4,0 C 3,3 C 1,1 C 94 % 1026,3 hPa 0,0 l/m 0 min 2 min 23 W/m 16,1 km/h (3 Bft) 97,87 %
11.02.2022 08:36 4,0 C 3,3 C 1,1 C 94 % 1026,2 hPa 0,0 l/m 0 min 2 min 29 W/m 25,7 km/h (4 Bft) 97,22 %
11.02.2022 08:38 4,0 C 3,3 C 1,1 C 94 % 1026,3 hPa 0,0 l/m 0 min 0 min 40 W/m 16,1 km/h (3 Bft) 97,87 %
11.02.2022 08:40 4,0 C 3,9 C 1,1 C 94 % 1026,4 hPa 0,0 l/m 0 min 0 min 46 W/m 22,5 km/h (4 Bft) 100,00 %
11.02.2022 08:42 4,0 C 3,9 C 1,1 C 93 % 1026,3 hPa 0,0 l/m 0 min 0 min 43 W/m 16,1 km/h (3 Bft) 100,00 %
11.02.2022 08:44 4,1 C 3,9 C 1,1 C 93 % 1026,4 hPa 0,0 l/m 0 min 0 min 38 W/m 16,1 km/h (3 Bft) 97,83 %
11.02.2022 08:46 4,1 C 3,9 C 1,1 C 93 % 1026,4 hPa 0,0 l/m 0 min 0 min 25 W/m 19,3 km/h (3 Bft) 100,00 %
11.02.2022 08:48 4,1 C 3,3 C 1,1 C 93 % 1026,5 hPa 0,0 l/m 0 min 0 min 21 W/m 19,3 km/h (3 Bft) 97,87 %
11.02.2022 08:50 4,1 C 3,3 C 1,1 C 93 % 1026,6 hPa 0,0 l/m 0 min 0 min 21 W/m 19,3 km/h (3 Bft) 100,00 %
11.02.2022 08:52 4,1 C 3,3 C 1,1 C 92 % 1026,6 hPa 0,0 l/m 0 min 0 min 22 W/m 12,9 km/h (3 Bft) 97,87 %
11.02.2022 08:54 4,1 C 3,3 C 1,1 C 92 % 1026,7 hPa 0,0 l/m 0 min 0 min 28 W/m 19,3 km/h (3 Bft) 97,87 %
11.02.2022 08:56 4,1 C 3,3 C 1,1 C 92 % 1026,8 hPa 0,0 l/m 0 min 0 min 29 W/m 25,7 km/h (4 Bft) 95,65 %
11.02.2022 08:58 4,1 C 3,3 C 1,1 C 92 % 1026,8 hPa 0,0 l/m 0 min 0 min 38 W/m 19,3 km/h (3 Bft) 100,00 %
11.02.2022 09:00 4,0 C 3,3 C 1,1 C 92 % 1026,8 hPa 0,0 l/m 0 min 0 min 51 W/m 16,1 km/h (3 Bft) 100,00 %
11.02.2022 09:02 4,1 C 3,3 C 1,1 C 92 % 1026,9 hPa 0,0 l/m 0 min 0 min 54 W/m 22,5 km/h (4 Bft) 93,62 %
11.02.2022 09:04 4,1 C 3,9 C 1,1 C 92 % 1026,9 hPa 0,0 l/m 0 min 0 min 75 W/m 22,5 km/h (4 Bft) 100,00 %
11.02.2022 09:06 4,1 C 3,9 C 1,1 C 92 % 1026,9 hPa 0,0 l/m 2 min 0 min 98 W/m 12,9 km/h (3 Bft) 91,49 %
11.02.2022 09:08 4,2 C 4,4 C 1,1 C 92 % 1026,9 hPa 0,0 l/m 0 min 0 min 76 W/m 12,9 km/h (3 Bft) 97,83 %
11.02.2022 09:10 4,2 C 4,4 C 1,1 C 92 % 1027,0 hPa 0,0 l/m 0 min 0 min 80 W/m 12,9 km/h (3 Bft) 95,74 %
11.02.2022 09:12 4,2 C 5,0 C 1,1 C 92 % 1027,1 hPa 0,0 l/m 2 min 0 min 104 W/m 12,9 km/h (3 Bft) 97,87 %
11.02.2022 09:14 4,3 C 4,4 C 1,1 C 92 % 1027,2 hPa 0,0 l/m 0 min 0 min 83 W/m 16,1 km/h (3 Bft) 97,87 %
11.02.2022 09:16 4,3 C 4,4 C 1,1 C 92 % 1027,2 hPa 0,0 l/m 0 min 0 min 68 W/m 22,5 km/h (4 Bft) 97,87 %
11.02.2022 09:18 4,3 C 4,4 C 1,1 C 92 % 1027,2 hPa 0,0 l/m 0 min 0 min 68 W/m 12,9 km/h (3 Bft) 95,74 %
11.02.2022 09:20 4,3 C 4,4 C 1,1 C 92 % 1027,3 hPa 0,0 l/m 0 min 0 min 50 W/m 16,1 km/h (3 Bft) 97,83 %
11.02.2022 09:22 4,3 C 3,9 C 1,1 C 91 % 1027,3 hPa 0,0 l/m 0 min 0 min 58 W/m 25,7 km/h (4 Bft) 97,87 %
11.02.2022 09:24 4,3 C 3,9 C 1,1 C 91 % 1027,5 hPa 0,0 l/m 0 min 0 min 64 W/m 29,0 km/h (5 Bft) 97,87 %
11.02.2022 09:26 4,3 C 3,9 C 1,1 C 91 % 1027,5 hPa 0,0 l/m 0 min 0 min 61 W/m 19,3 km/h (3 Bft) 97,87 %
11.02.2022 09:28 4,4 C 3,9 C 1,1 C 90 % 1027,5 hPa 0,0 l/m 0 min 0 min 82 W/m 19,3 km/h (3 Bft) 95,74 %
11.02.2022 09:30 4,3 C 3,9 C 1,1 C 90 % 1027,5 hPa 0,0 l/m 0 min 0 min 62 W/m 25,7 km/h (4 Bft) 97,87 %
11.02.2022 09:32 4,3 C 4,4 C 1,1 C 90 % 1027,5 hPa 0,0 l/m 0 min 0 min 65 W/m 19,3 km/h (3 Bft) 97,83 %
11.02.2022 09:34 4,4 C 4,4 C 1,1 C 90 % 1027,6 hPa 0,0 l/m 0 min 0 min 79 W/m 19,3 km/h (3 Bft) 97,87 %
11.02.2022 09:36 4,4 C 4,4 C 1,1 C 90 % 1027,7 hPa 0,0 l/m 0 min 0 min 79 W/m 16,1 km/h (3 Bft) 93,62 %
11.02.2022 09:38 4,4 C 4,4 C 1,1 C 89 % 1027,7 hPa 0,0 l/m 0 min 0 min 69 W/m 29,0 km/h (5 Bft) 95,74 %
11.02.2022 09:40 4,5 C 4,4 C 1,1 C 89 % 1027,7 hPa 0,0 l/m 0 min 0 min 76 W/m 22,5 km/h (4 Bft) 95,74 %
11.02.2022 09:42 4,5 C 4,4 C 1,1 C 89 % 1027,8 hPa 0,0 l/m 0 min 0 min 87 W/m 25,7 km/h (4 Bft) 97,87 %
11.02.2022 09:44 4,6 C 4,4 C 1,1 C 89 % 1027,9 hPa 0,0 l/m 0 min 0 min 59 W/m 32,2 km/h (5 Bft) 95,65 %
11.02.2022 09:46 4,6 C 5,0 C 1,1 C 89 % 1027,9 hPa 0,0 l/m 0 min 0 min 65 W/m 25,7 km/h (4 Bft) 91,49 %
11.02.2022 09:48 4,6 C 5,0 C 1,1 C 88 % 1028,0 hPa 0,0 l/m 2 min 0 min 127 W/m 22,5 km/h (4 Bft) 95,74 %
11.02.2022 09:50 4,6 C 5,0 C 1,1 C 88 % 1028,0 hPa 0,0 l/m 2 min 0 min 208 W/m 25,7 km/h (4 Bft) 95,74 %
11.02.2022 09:52 4,6 C 5,0 C 1,1 C 88 % 1028,1 hPa 0,0 l/m 2 min 0 min 161 W/m 19,3 km/h (3 Bft) 97,87 %
11.02.2022 09:54 4,6 C 5,6 C 1,1 C 88 % 1028,2 hPa 0,0 l/m 0 min 0 min 83 W/m 22,5 km/h (4 Bft) 97,87 %
11.02.2022 09:56 4,7 C 6,1 C 1,1 C 88 % 1028,2 hPa 0,0 l/m 0 min 0 min 83 W/m 16,1 km/h (3 Bft) 97,83 %
11.02.2022 09:58 4,7 C 6,1 C 1,1 C 88 % 1028,2 hPa 0,0 l/m 2 min 0 min 159 W/m 22,5 km/h (4 Bft) 97,87 %
11.02.2022 10:00 4,8 C 6,1 C 1,1 C 88 % 1028,2 hPa 0,0 l/m 2 min 0 min 188 W/m 29,0 km/h (5 Bft) 97,87 %
11.02.2022 10:02 4,8 C 6,7 C 1,1 C 87 % 1028,3 hPa 0,0 l/m 2 min 0 min 197 W/m 22,5 km/h (4 Bft) 97,87 %
11.02.2022 10:04 4,9 C 7,2 C 1,7 C 87 % 1028,3 hPa 0,0 l/m 2 min 0 min 184 W/m 22,5 km/h (4 Bft) 97,87 %
11.02.2022 10:06 4,9 C 7,2 C 1,7 C 87 % 1028,4 hPa 0,0 l/m 2 min 0 min 227 W/m 25,7 km/h (4 Bft) 97,83 %
11.02.2022 10:08 5,0 C 7,2 C 1,7 C 87 % 1028,3 hPa 0,0 l/m 2 min 0 min 248 W/m 19,3 km/h (3 Bft) 97,87 %
11.02.2022 10:10 5,1 C 7,2 C 1,7 C 86 % 1028,3 hPa 0,0 l/m 2 min 0 min 247 W/m 48,3 km/h (6 Bft) 97,87 %
11.02.2022 10:12 5,1 C 7,8 C 1,7 C 86 % 1028,4 hPa 0,0 l/m 2 min 0 min 277 W/m 38,6 km/h (5 Bft) 97,87 %
11.02.2022 10:14 5,2 C 7,2 C 1,7 C 85 % 1028,5 hPa 0,0 l/m 2 min 0 min 277 W/m 32,2 km/h (5 Bft) 95,74 %
11.02.2022 10:16 5,2 C 6,7 C 1,7 C 85 % 1028,5 hPa 0,0 l/m 0 min 0 min 119 W/m 25,7 km/h (4 Bft) 97,87 %
11.02.2022 10:18 5,2 C 6,7 C 1,7 C 85 % 1028,5 hPa 0,0 l/m 2 min 0 min 165 W/m 22,5 km/h (4 Bft) 97,87 %
11.02.2022 10:20 5,2 C 6,7 C 1,7 C 84 % 1028,5 hPa 0,0 l/m 2 min 0 min 186 W/m 29,0 km/h (5 Bft) 97,83 %
11.02.2022 10:22 5,2 C 7,8 C 1,7 C 84 % 1028,6 hPa 0,0 l/m 2 min 0 min 210 W/m 25,7 km/h (4 Bft) 97,87 %
11.02.2022 10:24 5,3 C 8,3 C 1,7 C 84 % 1028,7 hPa 0,0 l/m 2 min 0 min 272 W/m 22,5 km/h (4 Bft) 100,00 %
11.02.2022 10:26 5,3 C 8,9 C 1,7 C 84 % 1028,8 hPa 0,0 l/m 2 min 0 min 229 W/m 29,0 km/h (5 Bft) 100,00 %
11.02.2022 10:28 5,4 C 9,4 C 1,7 C 84 % 1028,7 hPa 0,0 l/m 2 min 0 min 226 W/m 22,5 km/h (4 Bft) 97,87 %
11.02.2022 10:30 5,4 C 9,4 C 1,7 C 84 % 1028,7 hPa 0,0 l/m 2 min 0 min 198 W/m 25,7 km/h (4 Bft) 100,00 %
11.02.2022 10:32 5,5 C 9,4 C 1,7 C 83 % 1028,8 hPa 0,0 l/m 2 min 0 min 237 W/m 22,5 km/h (4 Bft) 100,00 %
11.02.2022 10:34 5,5 C 9,4 C 1,7 C 83 % 1028,9 hPa 0,0 l/m 2 min 0 min 307 W/m 19,3 km/h (3 Bft) 100,00 %
11.02.2022 10:36 5,6 C 9,4 C 1,7 C 83 % 1028,8 hPa 0,0 l/m 2 min 0 min 301 W/m 16,1 km/h (3 Bft) 100,00 %
11.02.2022 10:38 5,6 C 10,0 C 1,7 C 83 % 1028,9 hPa 0,0 l/m 2 min 0 min 290 W/m 19,3 km/h (3 Bft) 100,00 %
11.02.2022 10:40 5,6 C 10,6 C 2,2 C 83 % 1028,8 hPa 0,0 l/m 2 min 0 min 297 W/m 29,0 km/h (5 Bft) 100,00 %
11.02.2022 10:42 5,7 C 10,6 C 2,8 C 83 % 1028,8 hPa 0,0 l/m 2 min 0 min 305 W/m 25,7 km/h (4 Bft) 95,65 %
11.02.2022 10:44 5,7 C 10,0 C 2,8 C 82 % 1028,9 hPa 0,0 l/m 2 min 0 min 311 W/m 25,7 km/h (4 Bft) 97,87 %
11.02.2022 10:46 5,7 C 9,4 C 2,8 C 82 % 1029,0 hPa 0,0 l/m 2 min 0 min 318 W/m 32,2 km/h (5 Bft) 97,87 %
11.02.2022 10:48 5,7 C 9,4 C 2,8 C 82 % 1029,0 hPa 0,0 l/m 2 min 0 min 316 W/m 19,3 km/h (3 Bft) 97,87 %
11.02.2022 10:50 5,7 C 9,4 C 2,8 C 82 % 1029,1 hPa 0,0 l/m 2 min 0 min 282 W/m 19,3 km/h (3 Bft) 98,18 %
11.02.2022 10:52 5,7 C 9,4 C 2,8 C 82 % 1029,1 hPa 0,0 l/m 2 min 0 min 328 W/m 25,7 km/h (4 Bft) 95,74 %
11.02.2022 10:54 5,7 C 8,9 C 2,8 C 81 % 1029,2 hPa 0,0 l/m 2 min 0 min 298 W/m 22,5 km/h (4 Bft) 95,74 %
11.02.2022 10:56 5,7 C 8,3 C 2,8 C 81 % 1029,2 hPa 0,0 l/m 2 min 0 min 249 W/m 19,3 km/h (3 Bft) 97,87 %
11.02.2022 10:58 5,7 C 7,8 C 2,8 C 82 % 1029,2 hPa 0,0 l/m 2 min 0 min 265 W/m 19,3 km/h (3 Bft) 97,87 %
11.02.2022 11:00 5,7 C 8,9 C 2,8 C 82 % 1029,3 hPa 0,0 l/m 2 min 0 min 270 W/m 29,0 km/h (5 Bft) 97,87 %
11.02.2022 11:02 5,7 C 10,0 C 2,8 C 82 % 1029,3 hPa 0,0 l/m 2 min 0 min 440 W/m 29,0 km/h (5 Bft) 97,83 %
11.02.2022 11:04 5,8 C 8,9 C 2,8 C 81 % 1029,4 hPa 0,0 l/m 2 min 0 min 340 W/m 22,5 km/h (4 Bft) 97,87 %
11.02.2022 11:06 5,8 C 8,3 C 2,8 C 81 % 1029,4 hPa 0,0 l/m 2 min 0 min 192 W/m 35,4 km/h (5 Bft) 97,87 %
11.02.2022 11:08 5,8 C 8,3 C 2,8 C 81 % 1029,3 hPa 0,0 l/m 2 min 0 min 349 W/m 29,0 km/h (5 Bft) 97,87 %
11.02.2022 11:10 5,8 C 8,3 C 2,8 C 81 % 1029,4 hPa 0,0 l/m 2 min 0 min 342 W/m 32,2 km/h (5 Bft) 95,74 %
11.02.2022 11:12 5,8 C 7,8 C 2,8 C 81 % 1029,5 hPa 0,0 l/m 2 min 0 min 189 W/m 19,3 km/h (3 Bft) 97,87 %
11.02.2022 11:14 5,8 C 7,2 C 2,8 C 81 % 1029,6 hPa 0,0 l/m 0 min 0 min 154 W/m 22,5 km/h (4 Bft) 97,83 %
11.02.2022 11:16 5,8 C 7,8 C 2,8 C 81 % 1029,6 hPa 0,0 l/m 2 min 0 min 243 W/m 22,5 km/h (4 Bft) 97,87 %
11.02.2022 11:18 5,8 C 7,8 C 2,8 C 81 % 1029,6 hPa 0,0 l/m 2 min 0 min 193 W/m 32,2 km/h (5 Bft) 97,87 %
11.02.2022 11:20 5,8 C 8,9 C 2,8 C 81 % 1029,7 hPa 0,0 l/m 2 min 0 min 190 W/m 25,7 km/h (4 Bft) 97,87 %
11.02.2022 11:22 5,8 C 9,4 C 2,8 C 81 % 1029,7 hPa 0,0 l/m 2 min 0 min 190 W/m 22,5 km/h (4 Bft) 97,87 %
11.02.2022 11:24 5,9 C 11,1 C 2,8 C 81 % 1029,8 hPa 0,0 l/m 2 min 0 min 358 W/m 19,3 km/h (3 Bft) 95,65 %
11.02.2022 11:26 6,0 C 11,7 C 2,8 C 81 % 1029,8 hPa 0,0 l/m 2 min 0 min 389 W/m 22,5 km/h (4 Bft) 97,87 %
11.02.2022 11:28 6,1 C 12,2 C 3,3 C 80 % 1029,9 hPa 0,0 l/m 2 min 0 min 390 W/m 35,4 km/h (5 Bft) 100,00 %
11.02.2022 11:30 6,2 C 12,2 C 3,3 C 81 % 1029,9 hPa 0,0 l/m 2 min 0 min 398 W/m 19,3 km/h (3 Bft) 100,00 %
11.02.2022 11:32 6,2 C 11,7 C 3,3 C 80 % 1030,0 hPa 0,0 l/m 2 min 0 min 398 W/m 25,7 km/h (4 Bft) 100,00 %
11.02.2022 11:34 6,2 C 12,2 C 3,3 C 80 % 1030,0 hPa 0,0 l/m 2 min 0 min 395 W/m 22,5 km/h (4 Bft) 95,74 %
11.02.2022 11:36 6,3 C 12,2 C 3,3 C 80 % 1030,1 hPa 0,0 l/m 2 min 0 min 394 W/m 22,5 km/h (4 Bft) 100,00 %
11.02.2022 11:38 6,4 C 13,3 C 3,3 C 80 % 1030,0 hPa 0,0 l/m 2 min 0 min 404 W/m 16,1 km/h (3 Bft) 97,87 %
11.02.2022 11:40 6,5 C 12,8 C 3,3 C 80 % 1030,2 hPa 0,0 l/m 2 min 0 min 399 W/m 29,0 km/h (5 Bft) 100,00 %
11.02.2022 11:42 6,5 C 11,7 C 3,3 C 78 % 1030,2 hPa 0,0 l/m 2 min 0 min 333 W/m 32,2 km/h (5 Bft) 100,00 %
11.02.2022 11:44 6,5 C 10,6 C 3,3 C 78 % 1030,2 hPa 0,0 l/m 2 min 0 min 415 W/m 32,2 km/h (5 Bft) 97,87 %
11.02.2022 11:46 6,5 C 10,0 C 3,3 C 78 % 1030,2 hPa 0,0 l/m 2 min 0 min 436 W/m 38,6 km/h (5 Bft) 100,00 %
11.02.2022 11:48 6,4 C 9,4 C 3,3 C 77 % 1030,3 hPa 0,0 l/m 2 min 0 min 375 W/m 45,1 km/h (6 Bft) 97,83 %
11.02.2022 11:50 6,4 C 10,0 C 3,3 C 77 % 1030,3 hPa 0,0 l/m 2 min 0 min 336 W/m 38,6 km/h (5 Bft) 100,00 %
11.02.2022 11:52 6,3 C 7,8 C 2,8 C 77 % 1030,3 hPa 0,0 l/m 0 min 0 min 155 W/m 22,5 km/h (4 Bft) 95,74 %
11.02.2022 11:54 6,2 C 7,2 C 2,8 C 78 % 1030,4 hPa 0,0 l/m 0 min 0 min 88 W/m 19,3 km/h (3 Bft) 95,74 %
11.02.2022 11:56 6,2 C 7,8 C 3,3 C 78 % 1030,5 hPa 0,0 l/m 0 min 0 min 176 W/m 32,2 km/h (5 Bft) 97,87 %
11.02.2022 11:58 6,2 C 8,3 C 3,9 C 78 % 1030,6 hPa 0,0 l/m 2 min 0 min 294 W/m 29,0 km/h (5 Bft) 98,00 %
11.02.2022 12:00 6,3 C 7,8 C 3,3 C 78 % 1030,6 hPa 0,0 l/m 2 min 0 min 257 W/m 29,0 km/h (5 Bft) 97,83 %
11.02.2022 12:02 6,3 C 7,8 C 3,3 C 78 % 1030,6 hPa 0,0 l/m 2 min 0 min 214 W/m 29,0 km/h (5 Bft) 97,87 %
11.02.2022 12:04 6,3 C 7,2 C 3,3 C 78 % 1030,6 hPa 0,0 l/m 2 min 0 min 212 W/m 32,2 km/h (5 Bft) 97,87 %
11.02.2022 12:08 6,2 C 7,2 C 3,3 C 78 % 1030,6 hPa 0,0 l/m 4 min 0 min 219 W/m 25,7 km/h (4 Bft) 97,59 %
11.02.2022 12:10 6,2 C 6,7 C 3,3 C 77 % 1030,6 hPa 0,0 l/m 0 min 0 min 184 W/m 22,5 km/h (4 Bft) 98,28 %
11.02.2022 12:12 6,2 C 6,7 C 3,3 C 78 % 1030,6 hPa 0,0 l/m 2 min 0 min 207 W/m 32,2 km/h (5 Bft) 97,87 %
11.02.2022 12:14 6,2 C 6,7 C 3,3 C 78 % 1030,6 hPa 0,0 l/m 0 min 0 min 178 W/m 22,5 km/h (4 Bft) 97,22 %
11.02.2022 12:16 6,2 C 6,7 C 3,3 C 79 % 1030,6 hPa 0,0 l/m 0 min 0 min 174 W/m 19,3 km/h (3 Bft) 98,28 %
11.02.2022 12:18 6,3 C 6,7 C 3,3 C 78 % 1030,6 hPa 0,0 l/m 0 min 0 min 173 W/m 29,0 km/h (5 Bft) 97,87 %
11.02.2022 12:20 6,2 C 7,8 C 3,9 C 76 % 1030,6 hPa 0,0 l/m 0 min 0 min 201 W/m 32,2 km/h (5 Bft) 97,30 %
11.02.2022 12:22 6,3 C 7,8 C 3,9 C 75 % 1030,7 hPa 0,0 l/m 0 min 0 min 177 W/m 38,6 km/h (5 Bft) 97,87 %
11.02.2022 12:24 6,2 C 6,7 C 3,3 C 74 % 1030,7 hPa 0,0 l/m 0 min 0 min 123 W/m 35,4 km/h (5 Bft) 97,87 %
11.02.2022 12:26 6,2 C 6,7 C 3,3 C 73 % 1030,8 hPa 0,0 l/m 0 min 0 min 131 W/m 32,2 km/h (5 Bft) 100,00 %
11.02.2022 12:28 6,1 C 6,7 C 3,3 C 73 % 1030,8 hPa 0,0 l/m 0 min 0 min 133 W/m 35,4 km/h (5 Bft) 100,00 %
11.02.2022 12:30 6,1 C 7,8 C 3,9 C 73 % 1030,7 hPa 0,0 l/m 2 min 0 min 241 W/m 41,8 km/h (6 Bft) 100,00 %
11.02.2022 12:32 6,2 C 8,3 C 4,4 C 72 % 1030,8 hPa 0,0 l/m 2 min 0 min 227 W/m 32,2 km/h (5 Bft) 100,00 %
11.02.2022 12:34 6,2 C 7,8 C 3,9 C 72 % 1030,8 hPa 0,0 l/m 0 min 0 min 151 W/m 35,4 km/h (5 Bft) 100,00 %
11.02.2022 12:36 6,3 C 8,3 C 3,3 C 72 % 1030,9 hPa 0,0 l/m 0 min 0 min 196 W/m 38,6 km/h (5 Bft) 100,00 %
11.02.2022 12:38 6,3 C 8,3 C 3,3 C 71 % 1030,8 hPa 0,0 l/m 2 min 0 min 294 W/m 38,6 km/h (5 Bft) 100,00 %
11.02.2022 12:40 6,4 C 8,9 C 3,3 C 70 % 1030,9 hPa 0,0 l/m 2 min 0 min 321 W/m 19,3 km/h (3 Bft) 100,00 %
11.02.2022 12:42 6,4 C 8,3 C 3,3 C 70 % 1030,8 hPa 0,0 l/m 2 min 0 min 231 W/m 22,5 km/h (4 Bft) 100,00 %
11.02.2022 12:44 6,5 C 8,9 C 3,3 C 70 % 1030,8 hPa 0,0 l/m 2 min 0 min 243 W/m 25,7 km/h (4 Bft) 100,00 %
11.02.2022 12:46 6,6 C 9,4 C 3,3 C 70 % 1030,8 hPa 0,0 l/m 2 min 0 min 326 W/m 32,2 km/h (5 Bft) 100,00 %
11.02.2022 12:48 6,8 C 9,4 C 3,3 C 70 % 1030,9 hPa 0,0 l/m 2 min 0 min 369 W/m 29,0 km/h (5 Bft) 100,00 %
11.02.2022 12:50 6,8 C 10,0 C 3,3 C 69 % 1030,9 hPa 0,0 l/m 2 min 0 min 329 W/m 32,2 km/h (5 Bft) 100,00 %
11.02.2022 12:52 6,8 C 11,7 C 3,3 C 68 % 1031,0 hPa 0,0 l/m 2 min 0 min 336 W/m 38,6 km/h (5 Bft) 97,83 %
11.02.2022 12:54 6,8 C 12,8 C 3,3 C 68 % 1031,0 hPa 0,0 l/m 2 min 0 min 425 W/m 32,2 km/h (5 Bft) 100,00 %
11.02.2022 12:56 6,9 C 12,8 C 3,3 C 68 % 1031,0 hPa 0,0 l/m 2 min 0 min 489 W/m 32,2 km/h (5 Bft) 97,87 %
11.02.2022 12:58 6,9 C 12,8 C 3,3 C 69 % 1031,0 hPa 0,0 l/m 2 min 0 min 536 W/m 25,7 km/h (4 Bft) 100,00 %
11.02.2022 13:00 7,1 C 13,9 C 3,3 C 69 % 1031,0 hPa 0,0 l/m 2 min 0 min 559 W/m 35,4 km/h (5 Bft) 100,00 %
11.02.2022 13:02 7,1 C 13,3 C 3,3 C 68 % 1030,9 hPa 0,0 l/m 2 min 0 min 580 W/m 19,3 km/h (3 Bft) 100,00 %
11.02.2022 13:04 7,2 C 12,2 C 3,9 C 68 % 1030,9 hPa 0,0 l/m 2 min 0 min 433 W/m 38,6 km/h (5 Bft) 100,00 %
11.02.2022 13:06 7,2 C 10,0 C 3,9 C 68 % 1031,0 hPa 0,0 l/m 2 min 0 min 264 W/m 29,0 km/h (5 Bft) 100,00 %
11.02.2022 13:08 7,1 C 10,0 C 3,9 C 68 % 1031,0 hPa 0,0 l/m 2 min 0 min 284 W/m 29,0 km/h (5 Bft) 100,00 %
11.02.2022 13:10 7,2 C 12,8 C 3,9 C 68 % 1031,0 hPa 0,0 l/m 2 min 0 min 563 W/m 29,0 km/h (5 Bft) 100,00 %
11.02.2022 13:12 7,2 C 11,1 C 3,9 C 66 % 1031,0 hPa 0,0 l/m 2 min 0 min 503 W/m 32,2 km/h (5 Bft) 97,87 %
11.02.2022 13:14 7,2 C 11,7 C 3,9 C 67 % 1031,1 hPa 0,0 l/m 2 min 0 min 503 W/m 25,7 km/h (4 Bft) 100,00 %
11.02.2022 13:16 7,2 C 9,4 C 3,9 C 66 % 1031,1 hPa 0,0 l/m 2 min 0 min 353 W/m 25,7 km/h (4 Bft) 100,00 %
11.02.2022 13:18 7,2 C 8,3 C 3,3 C 67 % 1031,1 hPa 0,0 l/m 0 min 0 min 150 W/m 25,7 km/h (4 Bft) 100,00 %
11.02.2022 13:20 7,0 C 7,2 C 3,3 C 66 % 1031,1 hPa 0,0 l/m 0 min 0 min 147 W/m 16,1 km/h (3 Bft) 97,87 %
11.02.2022 13:22 6,9 C 7,2 C 3,3 C 67 % 1031,1 hPa 0,0 l/m 0 min 0 min 150 W/m 22,5 km/h (4 Bft) 97,87 %
11.02.2022 13:24 6,9 C 6,7 C 3,3 C 67 % 1031,1 hPa 0,0 l/m 0 min 0 min 144 W/m 25,7 km/h (4 Bft) 97,87 %
11.02.2022 13:26 6,8 C 6,7 C 3,3 C 67 % 1031,1 hPa 0,0 l/m 0 min 0 min 152 W/m 29,0 km/h (5 Bft) 100,00 %
11.02.2022 13:28 6,8 C 6,7 C 3,3 C 68 % 1031,2 hPa 0,0 l/m 0 min 0 min 146 W/m 25,7 km/h (4 Bft) 97,87 %
11.02.2022 13:30 6,7 C 6,7 C 3,3 C 68 % 1031,2 hPa 0,0 l/m 0 min 0 min 139 W/m 16,1 km/h (3 Bft) 93,62 %
11.02.2022 13:32 6,7 C 6,7 C 3,3 C 68 % 1031,2 hPa 0,0 l/m 0 min 0 min 143 W/m 25,7 km/h (4 Bft) 97,87 %
11.02.2022 13:34 6,7 C 6,7 C 3,3 C 68 % 1031,3 hPa 0,0 l/m 0 min 0 min 128 W/m 25,7 km/h (4 Bft) 97,87 %
11.02.2022 13:36 6,6 C 6,7 C 2,8 C 67 % 1031,3 hPa 0,0 l/m 0 min 0 min 99 W/m 32,2 km/h (5 Bft) 97,87 %
11.02.2022 13:38 6,6 C 6,7 C 2,8 C 66 % 1031,4 hPa 0,0 l/m 0 min 0 min 76 W/m 22,5 km/h (4 Bft) 95,65 %
11.02.2022 13:40 6,5 C 7,8 C 2,8 C 66 % 1031,4 hPa 0,0 l/m 0 min 0 min 74 W/m 32,2 km/h (5 Bft) 93,62 %
11.02.2022 13:42 6,6 C 10,6 C 2,8 C 65 % 1031,4 hPa 0,0 l/m 2 min 0 min 306 W/m 19,3 km/h (3 Bft) 95,74 %
11.02.2022 13:44 6,6 C 12,8 C 2,8 C 65 % 1031,3 hPa 0,0 l/m 2 min 0 min 429 W/m 35,4 km/h (5 Bft) 93,62 %
11.02.2022 13:46 6,7 C 13,9 C 3,3 C 65 % 1031,4 hPa 0,0 l/m 2 min 0 min 429 W/m 19,3 km/h (3 Bft) 93,62 %
11.02.2022 13:48 6,9 C 14,4 C 3,3 C 65 % 1031,4 hPa 0,0 l/m 2 min 0 min 435 W/m 29,0 km/h (5 Bft) 93,62 %
11.02.2022 13:50 7,1 C 12,8 C 3,3 C 64 % 1031,5 hPa 0,0 l/m 2 min 0 min 394 W/m 25,7 km/h (4 Bft) 93,48 %
11.02.2022 13:52 7,1 C 12,8 C 3,3 C 63 % 1031,5 hPa 0,0 l/m 2 min 0 min 386 W/m 22,5 km/h (4 Bft) 95,74 %
11.02.2022 13:54 7,2 C 12,8 C 3,3 C 63 % 1031,4 hPa 0,0 l/m 2 min 0 min 428 W/m 22,5 km/h (4 Bft) 91,49 %
11.02.2022 13:56 7,3 C 12,8 C 3,3 C 62 % 1031,5 hPa 0,0 l/m 2 min 0 min 425 W/m 25,7 km/h (4 Bft) 95,74 %
11.02.2022 13:58 7,4 C 12,8 C 3,3 C 62 % 1031,4 hPa 0,0 l/m 2 min 0 min 432 W/m 32,2 km/h (5 Bft) 93,62 %
11.02.2022 14:00 7,4 C 12,8 C 3,3 C 62 % 1031,5 hPa 0,0 l/m 2 min 0 min 460 W/m 22,5 km/h (4 Bft) 93,62 %
11.02.2022 14:02 7,4 C 12,8 C 3,3 C 62 % 1031,5 hPa 0,0 l/m 2 min 0 min 495 W/m 16,1 km/h (3 Bft) 93,48 %
11.02.2022 14:04 7,6 C 11,7 C 3,3 C 63 % 1031,4 hPa 0,0 l/m 2 min 0 min 496 W/m 19,3 km/h (3 Bft) 93,62 %
11.02.2022 14:06 7,6 C 11,7 C 3,3 C 62 % 1031,4 hPa 0,0 l/m 2 min 0 min 445 W/m 19,3 km/h (3 Bft) 91,49 %
11.02.2022 14:08 7,6 C 11,7 C 3,3 C 62 % 1031,4 hPa 0,0 l/m 2 min 0 min 380 W/m 22,5 km/h (4 Bft) 93,62 %
11.02.2022 14:10 7,6 C 12,2 C 3,3 C 63 % 1031,5 hPa 0,0 l/m 2 min 0 min 535 W/m 22,5 km/h (4 Bft) 93,62 %
11.02.2022 14:12 7,7 C 12,8 C 3,9 C 63 % 1031,5 hPa 0,0 l/m 2 min 0 min 393 W/m 16,1 km/h (3 Bft) 93,62 %
11.02.2022 14:14 7,8 C 12,2 C 3,9 C 63 % 1031,5 hPa 0,0 l/m 2 min 0 min 391 W/m 16,1 km/h (3 Bft) 93,48 %
11.02.2022 14:16 7,9 C 11,7 C 3,9 C 62 % 1031,5 hPa 0,0 l/m 2 min 0 min 516 W/m 22,5 km/h (4 Bft) 91,49 %
11.02.2022 14:18 7,9 C 12,8 C 3,9 C 61 % 1031,5 hPa 0,0 l/m 2 min 0 min 485 W/m 25,7 km/h (4 Bft) 95,74 %
11.02.2022 14:20 8,0 C 13,3 C 3,9 C 62 % 1031,5 hPa 0,0 l/m 2 min 0 min 475 W/m 19,3 km/h (3 Bft) 95,74 %
11.02.2022 14:22 8,1 C 13,3 C 3,9 C 62 % 1031,6 hPa 0,0 l/m 2 min 0 min 481 W/m 22,5 km/h (4 Bft) 95,74 %
11.02.2022 14:24 8,1 C 13,3 C 3,9 C 60 % 1031,6 hPa 0,0 l/m 2 min 0 min 480 W/m 29,0 km/h (5 Bft) 91,49 %
11.02.2022 14:26 8,2 C 12,2 C 3,9 C 59 % 1031,7 hPa 0,0 l/m 2 min 0 min 481 W/m 48,3 km/h (6 Bft) 95,65 %
11.02.2022 14:28 8,2 C 12,2 C 3,9 C 58 % 1031,6 hPa 0,0 l/m 2 min 0 min 432 W/m 41,8 km/h (6 Bft) 95,74 %
11.02.2022 14:30 8,1 C 11,7 C 3,9 C 58 % 1031,6 hPa 0,0 l/m 2 min 0 min 434 W/m 22,5 km/h (4 Bft) 95,74 %
11.02.2022 14:32 8,1 C 12,2 C 3,9 C 58 % 1031,6 hPa 0,0 l/m 2 min 0 min 440 W/m 22,5 km/h (4 Bft) 95,74 %
11.02.2022 14:34 8,1 C 12,8 C 3,9 C 59 % 1031,6 hPa 0,0 l/m 2 min 0 min 442 W/m 25,7 km/h (4 Bft) 95,74 %
11.02.2022 14:36 8,1 C 12,2 C 3,9 C 59 % 1031,6 hPa 0,0 l/m 2 min 0 min 473 W/m 29,0 km/h (5 Bft) 95,74 %
11.02.2022 14:38 8,1 C 10,6 C 3,9 C 58 % 1031,6 hPa 0,0 l/m 2 min 0 min 219 W/m 25,7 km/h (4 Bft) 95,65 %
11.02.2022 14:40 7,9 C 10,0 C 3,9 C 58 % 1031,6 hPa 0,0 l/m 2 min 0 min 416 W/m 19,3 km/h (3 Bft) 95,74 %
11.02.2022 14:42 7,8 C 8,9 C 3,3 C 59 % 1031,6 hPa 0,0 l/m 2 min 0 min 329 W/m 29,0 km/h (5 Bft) 93,62 %
11.02.2022 14:44 7,7 C 11,1 C 3,3 C 60 % 1031,6 hPa 0,0 l/m 0 min 0 min 159 W/m 16,1 km/h (3 Bft) 95,74 %
11.02.2022 14:46 7,8 C 12,2 C 3,9 C 60 % 1031,6 hPa 0,0 l/m 2 min 0 min 462 W/m 22,5 km/h (4 Bft) 95,74 %
11.02.2022 14:48 7,9 C 12,2 C 3,9 C 60 % 1031,7 hPa 0,0 l/m 2 min 0 min 478 W/m 19,3 km/h (3 Bft) 95,74 %
11.02.2022 14:50 7,9 C 11,7 C 3,9 C 60 % 1031,6 hPa 0,0 l/m 2 min 0 min 457 W/m 16,1 km/h (3 Bft) 95,65 %
11.02.2022 14:52 8,0 C 10,0 C 3,9 C 60 % 1031,7 hPa 0,0 l/m 2 min 0 min 317 W/m 16,1 km/h (3 Bft) 95,74 %
11.02.2022 14:54 7,9 C 8,9 C 3,9 C 60 % 1031,7 hPa 0,0 l/m 2 min 0 min 215 W/m 22,5 km/h (4 Bft) 97,87 %
11.02.2022 14:56 7,7 C 7,8 C 3,9 C 61 % 1031,6 hPa 0,0 l/m 2 min 0 min 181 W/m 16,1 km/h (3 Bft) 97,87 %
11.02.2022 14:58 7,6 C 7,8 C 3,3 C 61 % 1031,7 hPa 0,0 l/m 2 min 0 min 177 W/m 19,3 km/h (3 Bft) 96,00 %
11.02.2022 15:00 7,6 C 7,8 C 3,3 C 61 % 1031,8 hPa 0,0 l/m 2 min 0 min 174 W/m 29,0 km/h (5 Bft) 95,65 %
11.02.2022 15:02 7,5 C 7,8 C 3,3 C 61 % 1031,7 hPa 0,0 l/m 2 min 0 min 164 W/m 32,2 km/h (5 Bft) 97,87 %
11.02.2022 15:04 7,4 C 7,8 C 3,3 C 61 % 1031,8 hPa 0,0 l/m 2 min 0 min 160 W/m 19,3 km/h (3 Bft) 97,87 %
11.02.2022 15:06 7,4 C 7,8 C 3,3 C 61 % 1031,7 hPa 0,0 l/m 0 min 0 min 142 W/m 19,3 km/h (3 Bft) 95,74 %
11.02.2022 15:08 7,4 C 7,2 C 3,3 C 60 % 1031,8 hPa 0,0 l/m 0 min 0 min 117 W/m 22,5 km/h (4 Bft) 100,00 %
11.02.2022 15:10 7,4 C 7,2 C 3,3 C 61 % 1031,9 hPa 0,0 l/m 0 min 0 min 117 W/m 16,1 km/h (3 Bft) 97,87 %
11.02.2022 15:12 7,3 C 7,2 C 3,3 C 61 % 1031,9 hPa 0,0 l/m 0 min 0 min 127 W/m 16,1 km/h (3 Bft) 100,00 %
11.02.2022 15:14 7,3 C 7,2 C 3,3 C 61 % 1031,9 hPa 0,0 l/m 2 min 0 min 156 W/m 35,4 km/h (5 Bft) 97,87 %
11.02.2022 15:16 7,2 C 7,2 C 3,3 C 60 % 1032,0 hPa 0,0 l/m 2 min 0 min 154 W/m 29,0 km/h (5 Bft) 95,74 %
11.02.2022 15:18 7,2 C 7,2 C 3,3 C 59 % 1032,1 hPa 0,0 l/m 0 min 0 min 139 W/m 32,2 km/h (5 Bft) 100,00 %
11.02.2022 15:20 7,1 C 7,2 C 3,3 C 59 % 1032,1 hPa 0,0 l/m 0 min 0 min 143 W/m 29,0 km/h (5 Bft) 100,00 %
11.02.2022 15:22 7,1 C 7,2 C 2,8 C 59 % 1032,1 hPa 0,0 l/m 0 min 0 min 128 W/m 22,5 km/h (4 Bft) 100,00 %
11.02.2022 15:24 7,0 C 7,2 C 2,8 C 59 % 1032,2 hPa 0,0 l/m 0 min 0 min 122 W/m 25,7 km/h (4 Bft) 100,00 %
11.02.2022 15:26 6,9 C 7,2 C 2,8 C 59 % 1032,2 hPa 0,0 l/m 2 min 0 min 166 W/m 25,7 km/h (4 Bft) 100,00 %
11.02.2022 15:28 6,9 C 8,3 C 2,8 C 60 % 1032,3 hPa 0,0 l/m 2 min 0 min 267 W/m 16,1 km/h (3 Bft) 100,00 %
11.02.2022 15:30 6,9 C 8,3 C 2,8 C 59 % 1032,3 hPa 0,0 l/m 2 min 0 min 303 W/m 25,7 km/h (4 Bft) 100,00 %
11.02.2022 15:32 6,9 C 8,3 C 2,8 C 59 % 1032,3 hPa 0,0 l/m 2 min 0 min 181 W/m 19,3 km/h (3 Bft) 100,00 %
11.02.2022 15:34 6,9 C 9,4 C 2,8 C 58 % 1032,3 hPa 0,0 l/m 2 min 0 min 222 W/m 29,0 km/h (5 Bft) 100,00 %
11.02.2022 15:36 6,9 C 10,0 C 2,8 C 58 % 1032,3 hPa 0,0 l/m 2 min 0 min 270 W/m 19,3 km/h (3 Bft) 100,00 %
11.02.2022 15:38 6,9 C 10,6 C 2,8 C 59 % 1032,2 hPa 0,0 l/m 2 min 0 min 260 W/m 19,3 km/h (3 Bft) 100,00 %
11.02.2022 15:40 7,0 C 9,4 C 2,8 C 59 % 1032,3 hPa 0,0 l/m 2 min 0 min 251 W/m 19,3 km/h (3 Bft) 100,00 %
11.02.2022 15:42 7,1 C 8,3 C 2,8 C 59 % 1032,3 hPa 0,0 l/m 2 min 0 min 244 W/m 19,3 km/h (3 Bft) 100,00 %
11.02.2022 15:44 7,1 C 7,8 C 2,8 C 59 % 1032,3 hPa 0,0 l/m 2 min 0 min 237 W/m 16,1 km/h (3 Bft) 100,00 %
11.02.2022 15:46 7,1 C 7,2 C 2,8 C 59 % 1032,3 hPa 0,0 l/m 2 min 0 min 233 W/m 19,3 km/h (3 Bft) 100,00 %
11.02.2022 15:48 7,1 C 6,7 C 2,8 C 59 % 1032,3 hPa 0,0 l/m 2 min 0 min 179 W/m 22,5 km/h (4 Bft) 100,00 %
11.02.2022 15:50 7,0 C 6,7 C 2,8 C 59 % 1032,4 hPa 0,0 l/m 2 min 0 min 214 W/m 19,3 km/h (3 Bft) 100,00 %
11.02.2022 15:52 7,0 C 6,7 C 2,8 C 59 % 1032,4 hPa 0,0 l/m 2 min 0 min 184 W/m 25,7 km/h (4 Bft) 100,00 %
11.02.2022 15:54 6,9 C 6,7 C 2,8 C 58 % 1032,4 hPa 0,0 l/m 2 min 0 min 162 W/m 22,5 km/h (4 Bft) 100,00 %
11.02.2022 15:56 6,9 C 6,7 C 2,8 C 58 % 1032,4 hPa 0,0 l/m 2 min 0 min 220 W/m 12,9 km/h (3 Bft) 100,00 %
11.02.2022 15:58 6,8 C 6,7 C 2,2 C 58 % 1032,5 hPa 0,0 l/m 2 min 0 min 221 W/m 16,1 km/h (3 Bft) 97,87 %
11.02.2022 16:00 6,8 C 6,7 C 2,8 C 59 % 1032,4 hPa 0,0 l/m 2 min 0 min 222 W/m 12,9 km/h (3 Bft) 97,83 %
11.02.2022 16:02 6,8 C 6,7 C 2,8 C 59 % 1032,4 hPa 0,0 l/m 2 min 0 min 220 W/m 12,9 km/h (3 Bft) 95,74 %
11.02.2022 16:04 6,8 C 6,7 C 2,8 C 59 % 1032,4 hPa 0,0 l/m 2 min 0 min 146 W/m 12,9 km/h (3 Bft) 97,87 %
11.02.2022 16:06 6,8 C 6,7 C 2,8 C 60 % 1032,5 hPa 0,0 l/m 0 min 0 min 100 W/m 12,9 km/h (3 Bft) 93,62 %
11.02.2022 16:08 6,8 C 6,7 C 2,8 C 59 % 1032,5 hPa 0,0 l/m 2 min 0 min 112 W/m 16,1 km/h (3 Bft) 97,87 %
11.02.2022 16:10 6,8 C 6,7 C 2,8 C 59 % 1032,5 hPa 0,0 l/m 2 min 0 min 103 W/m 16,1 km/h (3 Bft) 97,87 %
11.02.2022 16:12 6,8 C 6,7 C 2,8 C 59 % 1032,6 hPa 0,0 l/m 0 min 0 min 98 W/m 22,5 km/h (4 Bft) 97,83 %
11.02.2022 16:14 6,8 C 6,7 C 2,8 C 59 % 1032,5 hPa 0,0 l/m 2 min 0 min 98 W/m 12,9 km/h (3 Bft) 97,87 %
11.02.2022 16:16 6,8 C 6,7 C 2,8 C 60 % 1032,6 hPa 0,0 l/m 2 min 0 min 98 W/m 9,7 km/h (2 Bft) 93,62 %
11.02.2022 16:18 6,7 C 6,7 C 2,8 C 61 % 1032,6 hPa 0,0 l/m 2 min 0 min 93 W/m 12,9 km/h (3 Bft) 97,87 %
11.02.2022 16:20 6,7 C 6,1 C 2,8 C 61 % 1032,6 hPa 0,0 l/m 0 min 0 min 84 W/m 12,9 km/h (3 Bft) 97,87 %
11.02.2022 16:22 6,7 C 6,1 C 2,8 C 62 % 1032,7 hPa 0,0 l/m 0 min 0 min 76 W/m 6,4 km/h (2 Bft) 93,62 %
11.02.2022 16:24 6,7 C 6,1 C 2,2 C 62 % 1032,7 hPa 0,0 l/m 0 min 0 min 70 W/m 16,1 km/h (3 Bft) 97,83 %
11.02.2022 16:26 6,6 C 6,1 C 2,2 C 62 % 1032,7 hPa 0,0 l/m 0 min 0 min 62 W/m 12,9 km/h (3 Bft) 97,87 %
11.02.2022 16:28 6,6 C 6,1 C 2,2 C 62 % 1032,7 hPa 0,0 l/m 0 min 0 min 52 W/m 19,3 km/h (3 Bft) 97,87 %
11.02.2022 16:30 6,5 C 6,1 C 2,2 C 62 % 1032,7 hPa 0,0 l/m 0 min 0 min 45 W/m 12,9 km/h (3 Bft) 97,87 %
11.02.2022 16:32 6,5 C 5,6 C 2,2 C 62 % 1032,8 hPa 0,0 l/m 0 min 0 min 38 W/m 22,5 km/h (4 Bft) 97,87 %
11.02.2022 16:34 6,4 C 5,6 C 2,2 C 62 % 1032,8 hPa 0,0 l/m 0 min 0 min 33 W/m 12,9 km/h (3 Bft) 97,87 %
11.02.2022 16:36 6,3 C 5,6 C 1,7 C 62 % 1032,8 hPa 0,0 l/m 0 min 0 min 32 W/m 19,3 km/h (3 Bft) 97,83 %
11.02.2022 16:38 6,3 C 5,6 C 1,7 C 62 % 1032,7 hPa 0,0 l/m 0 min 0 min 32 W/m 22,5 km/h (4 Bft) 97,87 %
11.02.2022 16:40 6,2 C 5,6 C 1,7 C 61 % 1032,8 hPa 0,0 l/m 0 min 0 min 31 W/m 25,7 km/h (4 Bft) 97,87 %
11.02.2022 16:42 6,2 C 5,6 C 1,7 C 61 % 1032,8 hPa 0,0 l/m 0 min 0 min 30 W/m 16,1 km/h (3 Bft) 100,00 %
11.02.2022 16:44 6,1 C 5,6 C 1,7 C 61 % 1032,8 hPa 0,0 l/m 0 min 0 min 28 W/m 22,5 km/h (4 Bft) 100,00 %
11.02.2022 16:46 6,1 C 5,6 C 1,7 C 61 % 1032,8 hPa 0,0 l/m 0 min 0 min 29 W/m 19,3 km/h (3 Bft) 97,83 %
11.02.2022 16:48 6,1 C 5,0 C 1,7 C 61 % 1032,8 hPa 0,0 l/m 0 min 0 min 30 W/m 25,7 km/h (4 Bft) 100,00 %
11.02.2022 16:50 6,1 C 5,0 C 1,7 C 61 % 1032,9 hPa 0,0 l/m 0 min 0 min 30 W/m 12,9 km/h (3 Bft) 97,87 %
11.02.2022 16:52 6,0 C 5,0 C 1,7 C 62 % 1033,0 hPa 0,0 l/m 0 min 0 min 30 W/m 12,9 km/h (3 Bft) 97,87 %
11.02.2022 16:54 5,9 C 5,0 C 1,7 C 62 % 1033,0 hPa 0,0 l/m 0 min 0 min 32 W/m 12,9 km/h (3 Bft) 97,87 %
11.02.2022 16:56 5,9 C 5,0 C 1,7 C 62 % 1033,0 hPa 0,0 l/m 0 min 0 min 33 W/m 19,3 km/h (3 Bft) 97,87 %
11.02.2022 16:58 5,9 C 5,0 C 1,7 C 62 % 1033,1 hPa 0,0 l/m 0 min 0 min 33 W/m 19,3 km/h (3 Bft) 97,87 %
11.02.2022 17:00 5,8 C 5,0 C 1,7 C 63 % 1033,1 hPa 0,0 l/m 0 min 0 min 31 W/m 12,9 km/h (3 Bft) 98,08 %
11.02.2022 17:02 5,8 C 5,0 C 1,1 C 63 % 1033,1 hPa 0,0 l/m 0 min 0 min 27 W/m 16,1 km/h (3 Bft) 97,56 %
11.02.2022 17:04 5,7 C 5,0 C 1,1 C 63 % 1033,1 hPa 0,0 l/m 0 min 0 min 26 W/m 12,9 km/h (3 Bft) 95,74 %
11.02.2022 17:06 5,7 C 5,0 C 1,1 C 63 % 1033,1 hPa 0,0 l/m 0 min 0 min 25 W/m 6,4 km/h (2 Bft) 97,87 %
11.02.2022 17:08 5,6 C 5,0 C 1,1 C 64 % 1033,1 hPa 0,0 l/m 0 min 0 min 23 W/m 3,2 km/h (1 Bft) 93,62 %
11.02.2022 17:10 5,6 C 5,0 C 1,1 C 64 % 1033,1 hPa 0,0 l/m 0 min 0 min 22 W/m 9,7 km/h (2 Bft) 95,65 %
11.02.2022 17:12 5,6 C 5,0 C 1,1 C 64 % 1033,1 hPa 0,0 l/m 0 min 0 min 21 W/m 9,7 km/h (2 Bft) 95,74 %
11.02.2022 17:14 5,6 C 5,0 C 1,1 C 64 % 1033,1 hPa 0,0 l/m 0 min 0 min 19 W/m 6,4 km/h (2 Bft) 95,74 %
11.02.2022 17:16 5,5 C 4,4 C 1,1 C 64 % 1033,2 hPa 0,0 l/m 0 min 0 min 19 W/m 6,4 km/h (2 Bft) 93,62 %
11.02.2022 17:18 5,4 C 4,4 C 1,1 C 64 % 1033,2 hPa 0,0 l/m 0 min 0 min 18 W/m 3,2 km/h (1 Bft) 93,62 %
11.02.2022 17:20 5,4 C 4,4 C 1,1 C 65 % 1033,2 hPa 0,0 l/m 0 min 0 min 18 W/m 6,4 km/h (2 Bft) 95,74 %
11.02.2022 17:22 5,4 C 4,4 C 1,1 C 65 % 1033,2 hPa 0,0 l/m 0 min 0 min 19 W/m 9,7 km/h (2 Bft) 95,12 %
11.02.2022 17:24 5,3 C 4,4 C 1,1 C 65 % 1033,3 hPa 0,0 l/m 0 min 0 min 19 W/m 9,7 km/h (2 Bft) 95,74 %
11.02.2022 17:26 5,3 C 4,4 C 1,1 C 66 % 1033,2 hPa 0,0 l/m 0 min 0 min 19 W/m 3,2 km/h (1 Bft) 95,74 %
11.02.2022 17:28 5,3 C 4,4 C 1,1 C 66 % 1033,3 hPa 0,0 l/m 0 min 0 min 17 W/m 3,2 km/h (1 Bft) 95,74 %
11.02.2022 17:30 5,3 C 4,4 C 1,1 C 67 % 1033,3 hPa 0,0 l/m 0 min 0 min 14 W/m 3,2 km/h (1 Bft) 97,87 %
11.02.2022 17:32 5,3 C 4,4 C 1,1 C 67 % 1033,3 hPa 0,0 l/m 0 min 0 min 12 W/m 0,0 km/h (0 Bft) 97,87 %
11.02.2022 17:34 5,2 C 4,4 C 1,1 C 68 % 1033,4 hPa 0,0 l/m 0 min 0 min 9 W/m 0,0 km/h (0 Bft) 97,83 %
11.02.2022 17:36 5,2 C 4,4 C 1,1 C 68 % 1033,4 hPa 0,0 l/m 0 min 0 min 7 W/m 3,2 km/h (1 Bft) 96,61 %
11.02.2022 17:38 5,2 C 4,4 C 1,1 C 68 % 1033,4 hPa 0,0 l/m 0 min 0 min 5 W/m 3,2 km/h (1 Bft) 97,87 %
11.02.2022 17:40 5,2 C 4,4 C 0,6 C 68 % 1033,4 hPa 0,0 l/m 0 min 0 min 5 W/m 0,0 km/h (0 Bft) 97,14 %
11.02.2022 17:42 5,2 C 4,4 C 0,6 C 69 % 1033,5 hPa 0,0 l/m 0 min 0 min 0 W/m 0,0 km/h (0 Bft) 95,74 %
11.02.2022 17:44 5,2 C 4,4 C 0,6 C 69 % 1033,5 hPa 0,0 l/m 0 min 0 min 0 W/m 0,0 km/h (0 Bft) 95,74 %
11.02.2022 17:46 5,2 C 4,4 C 0,6 C 70 % 1033,5 hPa 0,0 l/m 0 min 0 min 0 W/m 3,2 km/h (1 Bft) 97,83 %
11.02.2022 17:48 5,2 C 4,4 C 0,6 C 70 % 1033,5 hPa 0,0 l/m 0 min 0 min 0 W/m 3,2 km/h (1 Bft) 100,00 %
11.02.2022 17:50 5,1 C 3,9 C 0,6 C 70 % 1033,5 hPa 0,0 l/m 0 min 0 min 0 W/m 0,0 km/h (0 Bft) 100,00 %
11.02.2022 17:52 5,1 C 3,9 C 0,6 C 70 % 1033,5 hPa 0,0 l/m 0 min 0 min 0 W/m 0,0 km/h (0 Bft) 100,00 %
11.02.2022 17:54 5,1 C 3,9 C 0,6 C 70 % 1033,5 hPa 0,0 l/m 0 min 0 min 0 W/m 3,2 km/h (1 Bft) 97,87 %
11.02.2022 17:56 5,1 C 3,9 C 0,6 C 70 % 1033,6 hPa 0,0 l/m 0 min 0 min 0 W/m 0,0 km/h (0 Bft) 100,00 %
11.02.2022 17:58 5,1 C 3,9 C 0,6 C 70 % 1033,7 hPa 0,0 l/m 0 min 0 min 0 W/m 0,0 km/h (0 Bft) 100,00 %
11.02.2022 18:00 5,1 C 3,9 C 0,6 C 70 % 1033,6 hPa 0,0 l/m 0 min 0 min 0 W/m 3,2 km/h (1 Bft) 100,00 %
11.02.2022 18:02 5,0 C 3,9 C 0,6 C 70 % 1033,7 hPa 0,0 l/m 0 min 0 min 0 W/m 3,2 km/h (1 Bft) 100,00 %
11.02.2022 18:04 5,0 C 3,9 C 0,6 C 70 % 1033,7 hPa 0,0 l/m 0 min 0 min 0 W/m 3,2 km/h (1 Bft) 97,87 %
11.02.2022 18:08 4,9 C 3,9 C 0,6 C 70 % 1033,6 hPa 0,0 l/m 0 min 0 min 0 W/m 3,2 km/h (1 Bft) 100,00 %
11.02.2022 18:10 4,9 C 3,9 C 0,6 C 70 % 1033,7 hPa 0,0 l/m 0 min 0 min 0 W/m 3,2 km/h (1 Bft) 100,00 %
11.02.2022 18:12 4,9 C 3,9 C 0,6 C 71 % 1033,7 hPa 0,0 l/m 0 min 0 min 0 W/m 3,2 km/h (1 Bft) 100,00 %
11.02.2022 18:14 4,9 C 3,9 C 0,6 C 71 % 1033,7 hPa 0,0 l/m 0 min 0 min 0 W/m 3,2 km/h (1 Bft) 97,87 %
11.02.2022 18:16 4,9 C 3,9 C 0,6 C 70 % 1033,8 hPa 0,0 l/m 0 min 0 min 0 W/m 0,0 km/h (0 Bft) 100,00 %
11.02.2022 18:18 4,8 C 3,9 C 0,0 C 70 % 1033,8 hPa 0,0 l/m 0 min 0 min 0 W/m 0,0 km/h (0 Bft) 100,00 %
11.02.2022 18:20 4,8 C 3,9 C 0,0 C 71 % 1033,8 hPa 0,0 l/m 0 min 0 min 0 W/m 0,0 km/h (0 Bft) 100,00 %
11.02.2022 18:22 4,8 C 3,9 C 0,0 C 71 % 1033,9 hPa 0,0 l/m 0 min 0 min 0 W/m 3,2 km/h (1 Bft) 100,00 %
11.02.2022 18:24 4,8 C 3,3 C 0,0 C 71 % 1033,8 hPa 0,0 l/m 0 min 0 min 0 W/m 3,2 km/h (1 Bft) 100,00 %
11.02.2022 18:26 4,7 C 3,3 C 0,0 C 71 % 1033,8 hPa 0,0 l/m 0 min 0 min 0 W/m 6,4 km/h (2 Bft) 100,00 %
11.02.2022 18:28 4,7 C 3,3 C 0,0 C 71 % 1033,9 hPa 0,0 l/m 0 min 0 min 0 W/m 3,2 km/h (1 Bft) 97,87 %
11.02.2022 18:30 4,7 C 3,3 C 0,0 C 72 % 1033,9 hPa 0,0 l/m 0 min 0 min 0 W/m 0,0 km/h (0 Bft) 97,87 %
11.02.2022 18:32 4,6 C 3,3 C 0,0 C 72 % 1033,9 hPa 0,0 l/m 0 min 0 min 0 W/m 3,2 km/h (1 Bft) 100,00 %
11.02.2022 18:34 4,6 C 3,3 C 0,0 C 72 % 1034,0 hPa 0,0 l/m 0 min 0 min 0 W/m 3,2 km/h (1 Bft) 97,83 %
11.02.2022 18:36 4,5 C 3,3 C 0,0 C 72 % 1034,0 hPa 0,0 l/m 0 min 0 min 0 W/m 3,2 km/h (1 Bft) 100,00 %
11.02.2022 18:38 4,4 C 3,3 C 0,0 C 72 % 1034,0 hPa 0,0 l/m 0 min 0 min 0 W/m 0,0 km/h (0 Bft) 100,00 %
11.02.2022 18:40 4,4 C 3,3 C -0,6 C 72 % 1034,1 hPa 0,0 l/m 0 min 0 min 0 W/m 6,4 km/h (2 Bft) 100,00 %
11.02.2022 18:42 4,4 C 3,3 C 0,0 C 72 % 1034,1 hPa 0,0 l/m 0 min 0 min 0 W/m 6,4 km/h (2 Bft) 100,00 %
11.02.2022 18:44 4,4 C 3,3 C -0,6 C 72 % 1034,1 hPa 0,0 l/m 0 min 0 min 0 W/m 0,0 km/h (0 Bft) 97,83 %
11.02.2022 18:46 4,3 C 3,3 C -0,6 C 72 % 1034,1 hPa 0,0 l/m 0 min 0 min 0 W/m 0,0 km/h (0 Bft) 93,62 %
11.02.2022 18:48 4,3 C 2,8 C -0,6 C 72 % 1034,0 hPa 0,0 l/m 0 min 0 min 0 W/m 3,2 km/h (1 Bft) 96,00 %
11.02.2022 18:50 4,3 C 2,8 C -0,6 C 72 % 1034,0 hPa 0,0 l/m 0 min 0 min 0 W/m 0,0 km/h (0 Bft) 97,87 %
11.02.2022 18:52 4,3 C 2,8 C -0,6 C 72 % 1034,0 hPa 0,0 l/m 0 min 0 min 0 W/m 0,0 km/h (0 Bft) 95,74 %
11.02.2022 18:54 4,3 C 2,8 C -0,6 C 72 % 1033,9 hPa 0,0 l/m 0 min 0 min 0 W/m 0,0 km/h (0 Bft) 97,83 %
11.02.2022 18:56 4,3 C 2,8 C -0,6 C 72 % 1034,0 hPa 0,0 l/m 0 min 0 min 0 W/m 0,0 km/h (0 Bft) 95,74 %
11.02.2022 18:58 4,3 C 3,3 C -0,6 C 72 % 1034,1 hPa 0,0 l/m 0 min 0 min 0 W/m 3,2 km/h (1 Bft) 95,74 %
11.02.2022 19:00 4,2 C 3,3 C -0,6 C 73 % 1034,1 hPa 0,0 l/m 0 min 0 min 0 W/m 3,2 km/h (1 Bft) 93,62 %
11.02.2022 19:02 4,2 C 3,3 C -0,6 C 73 % 1034,1 hPa 0,0 l/m 0 min 0 min 0 W/m 3,2 km/h (1 Bft) 93,62 %
11.02.2022 19:04 4,2 C 3,3 C -0,6 C 73 % 1034,1 hPa 0,0 l/m 0 min 0 min 0 W/m 0,0 km/h (0 Bft) 93,62 %
11.02.2022 19:06 4,2 C 3,3 C -0,6 C 73 % 1034,1 hPa 0,0 l/m 0 min 0 min 0 W/m 0,0 km/h (0 Bft) 95,65 %
11.02.2022 19:08 4,2 C 3,3 C -0,6 C 73 % 1034,1 hPa 0,0 l/m 0 min 0 min 0 W/m 3,2 km/h (1 Bft) 97,87 %
11.02.2022 19:10 4,2 C 2,8 C -0,6 C 73 % 1034,1 hPa 0,0 l/m 0 min 0 min 0 W/m 3,2 km/h (1 Bft) 95,74 %
11.02.2022 19:12 4,2 C 2,8 C -0,6 C 73 % 1034,1 hPa 0,0 l/m 0 min 0 min 0 W/m 0,0 km/h (0 Bft) 95,74 %
11.02.2022 19:14 4,1 C 2,8 C -1,1 C 73 % 1034,0 hPa 0,0 l/m 0 min 0 min 0 W/m 0,0 km/h (0 Bft) 93,62 %
11.02.2022 19:16 4,1 C 2,8 C -1,1 C 73 % 1034,0 hPa 0,0 l/m 0 min 0 min 0 W/m 0,0 km/h (0 Bft) 93,62 %
11.02.2022 19:18 4,1 C 2,8 C -1,1 C 73 % 1034,0 hPa 0,0 l/m 0 min 0 min 0 W/m 0,0 km/h (0 Bft) 95,74 %
11.02.2022 19:20 4,1 C 2,8 C -1,1 C 73 % 1034,1 hPa 0,0 l/m 0 min 0 min 0 W/m 0,0 km/h (0 Bft) 95,65 %
11.02.2022 19:22 4,1 C 2,8 C -1,1 C 73 % 1034,1 hPa 0,0 l/m 0 min 0 min 0 W/m 0,0 km/h (0 Bft) 93,62 %
11.02.2022 19:24 4,1 C 2,8 C -1,1 C 73 % 1034,2 hPa 0,0 l/m 0 min 0 min 0 W/m 0,0 km/h (0 Bft) 93,62 %
11.02.2022 19:26 4,0 C 2,2 C -1,7 C 73 % 1034,1 hPa 0,0 l/m 0 min 0 min 0 W/m 0,0 km/h (0 Bft) 93,62 %
11.02.2022 19:28 4,0 C 2,2 C -1,7 C 73 % 1034,1 hPa 0,0 l/m 0 min 0 min 0 W/m 0,0 km/h (0 Bft) 93,62 %
11.02.2022 19:30 3,9 C 2,2 C -1,7 C 73 % 1034,1 hPa 0,0 l/m 0 min 0 min 0 W/m 3,2 km/h (1 Bft) 95,65 %
11.02.2022 19:32 3,9 C 2,2 C -1,7 C 74 % 1034,1 hPa 0,0 l/m 0 min 0 min 0 W/m 3,2 km/h (1 Bft) 95,83 %
11.02.2022 19:34 3,9 C 2,2 C -1,7 C 74 % 1034,1 hPa 0,0 l/m 0 min 0 min 0 W/m 0,0 km/h (0 Bft) 93,62 %
11.02.2022 19:36 3,8 C 2,2 C -1,7 C 74 % 1034,1 hPa 0,0 l/m 0 min 0 min 0 W/m 0,0 km/h (0 Bft) 93,62 %
11.02.2022 19:38 3,8 C 2,2 C -1,7 C 75 % 1034,2 hPa 0,0 l/m 0 min 0 min 0 W/m 0,0 km/h (0 Bft) 95,74 %
11.02.2022 19:40 3,7 C 2,2 C -1,7 C 75 % 1034,2 hPa 0,0 l/m 0 min 0 min 0 W/m 0,0 km/h (0 Bft) 95,74 %
11.02.2022 19:42 3,7 C 1,7 C -1,7 C 75 % 1034,2 hPa 0,0 l/m 0 min 0 min 0 W/m 0,0 km/h (0 Bft) 95,65 %
11.02.2022 19:44 3,7 C 1,7 C -1,7 C 75 % 1034,2 hPa 0,0 l/m 0 min 0 min 0 W/m 0,0 km/h (0 Bft) 95,74 %
11.02.2022 19:46 3,6 C 1,7 C -1,7 C 75 % 1034,2 hPa 0,0 l/m 0 min 0 min 0 W/m 0,0 km/h (0 Bft) 95,74 %
11.02.2022 19:48 3,6 C 1,7 C -2,2 C 76 % 1034,1 hPa 0,0 l/m 0 min 0 min 0 W/m 0,0 km/h (0 Bft) 97,87 %
11.02.2022 19:50 3,6 C 1,7 C -2,2 C 76 % 1034,2 hPa 0,0 l/m 0 min 0 min 0 W/m 0,0 km/h (0 Bft) 95,74 %
11.02.2022 19:52 3,5 C 1,1 C -2,2 C 76 % 1034,2 hPa 0,0 l/m 0 min 0 min 0 W/m 0,0 km/h (0 Bft) 97,87 %
11.02.2022 19:54 3,4 C 1,1 C -2,2 C 76 % 1034,2 hPa 0,0 l/m 0 min 0 min 0 W/m 3,2 km/h (1 Bft) 97,83 %
11.02.2022 19:56 3,4 C 1,1 C -2,2 C 76 % 1034,2 hPa 0,0 l/m 0 min 0 min 0 W/m 0,0 km/h (0 Bft) 97,87 %
11.02.2022 19:58 3,3 C 1,1 C -2,2 C 76 % 1034,2 hPa 0,0 l/m 0 min 0 min 0 W/m 0,0 km/h (0 Bft) 95,74 %
11.02.2022 20:00 3,3 C 1,1 C -2,2 C 77 % 1034,3 hPa 0,0 l/m 0 min 0 min 0 W/m 0,0 km/h (0 Bft) 97,87 %
11.02.2022 20:02 3,3 C 1,1 C -2,2 C 77 % 1034,3 hPa 0,0 l/m 0 min 0 min 0 W/m 6,4 km/h (2 Bft) 97,92 %
11.02.2022 20:04 3,2 C 1,1 C -2,2 C 77 % 1034,3 hPa 0,0 l/m 0 min 0 min 0 W/m 3,2 km/h (1 Bft) 100,00 %
11.02.2022 20:06 3,2 C 1,7 C -2,2 C 77 % 1034,3 hPa 0,0 l/m 0 min 0 min 0 W/m 3,2 km/h (1 Bft) 100,00 %
11.02.2022 20:08 3,1 C 1,7 C -2,2 C 78 % 1034,3 hPa 0,0 l/m 0 min 0 min 0 W/m 0,0 km/h (0 Bft) 100,00 %
11.02.2022 20:10 3,1 C 1,7 C -2,2 C 78 % 1034,3 hPa 0,0 l/m 0 min 0 min 0 W/m 0,0 km/h (0 Bft) 100,00 %
11.02.2022 20:12 3,1 C 1,7 C -2,2 C 78 % 1034,3 hPa 0,0 l/m 0 min 0 min 0 W/m 0,0 km/h (0 Bft) 100,00 %
11.02.2022 20:14 3,0 C 1,7 C -2,2 C 78 % 1034,3 hPa 0,0 l/m 0 min 0 min 0 W/m 3,2 km/h (1 Bft) 97,87 %
11.02.2022 20:16 3,0 C 1,7 C -2,2 C 78 % 1034,2 hPa 0,0 l/m 0 min 0 min 0 W/m 0,0 km/h (0 Bft) 100,00 %
11.02.2022 20:18 2,9 C 1,1 C -2,2 C 78 % 1034,4 hPa 0,0 l/m 0 min 0 min 0 W/m 0,0 km/h (0 Bft) 100,00 %
11.02.2022 20:20 2,9 C 1,1 C -2,2 C 78 % 1034,4 hPa 0,0 l/m 0 min 0 min 0 W/m 0,0 km/h (0 Bft) 100,00 %
11.02.2022 20:22 2,9 C 1,1 C -2,2 C 78 % 1034,4 hPa 0,0 l/m 0 min 0 min 0 W/m 0,0 km/h (0 Bft) 97,87 %
11.02.2022 20:24 2,8 C 1,1 C -2,2 C 78 % 1034,4 hPa 0,0 l/m 0 min 0 min 0 W/m 0,0 km/h (0 Bft) 95,74 %
11.02.2022 20:26 2,8 C 1,1 C -2,2 C 78 % 1034,4 hPa 0,0 l/m 0 min 0 min 0 W/m 0,0 km/h (0 Bft) 97,87 %
11.02.2022 20:28 2,8 C 1,1 C -2,2 C 78 % 1034,4 hPa 0,0 l/m 0 min 0 min 0 W/m 0,0 km/h (0 Bft) 97,83 %
11.02.2022 20:30 2,8 C 1,1 C -2,2 C 79 % 1034,5 hPa 0,0 l/m 0 min 0 min 0 W/m 0,0 km/h (0 Bft) 95,74 %
11.02.2022 20:32 2,7 C 1,1 C -2,2 C 79 % 1034,6 hPa 0,0 l/m 0 min 0 min 0 W/m 0,0 km/h (0 Bft) 97,87 %
11.02.2022 20:34 2,7 C 1,1 C -2,2 C 79 % 1034,6 hPa 0,0 l/m 0 min 0 min 0 W/m 0,0 km/h (0 Bft) 95,74 %
11.02.2022 20:36 2,7 C 1,1 C -2,2 C 79 % 1034,6 hPa 0,0 l/m 0 min 0 min 0 W/m 0,0 km/h (0 Bft) 93,62 %
11.02.2022 20:38 2,7 C 1,1 C -2,2 C 79 % 1034,6 hPa 0,0 l/m 0 min 0 min 0 W/m 0,0 km/h (0 Bft) 53,85 %
11.02.2022 20:40 2,6 C 1,1 C -2,2 C 79 % 1034,7 hPa 0,0 l/m 0 min 0 min 0 W/m 0,0 km/h (0 Bft) 97,83 %
11.02.2022 20:42 2,6 C 1,1 C -2,2 C 79 % 1034,6 hPa 0,0 l/m 0 min 0 min 0 W/m 0,0 km/h (0 Bft) 97,87 %
11.02.2022 20:44 2,6 C 1,1 C -2,2 C 79 % 1034,7 hPa 0,0 l/m 0 min 0 min 0 W/m 0,0 km/h (0 Bft) 97,87 %
11.02.2022 20:46 2,6 C 1,1 C -2,2 C 80 % 1034,7 hPa 0,0 l/m 0 min 0 min 0 W/m 0,0 km/h (0 Bft) 95,74 %
11.02.2022 20:48 2,6 C 1,1 C -2,2 C 80 % 1034,7 hPa 0,0 l/m 0 min 0 min 0 W/m 0,0 km/h (0 Bft) 97,87 %
11.02.2022 20:50 2,6 C 1,7 C -2,2 C 80 % 1034,7 hPa 0,0 l/m 0 min 0 min 0 W/m 0,0 km/h (0 Bft) 100,00 %
11.02.2022 20:52 2,6 C 1,7 C -2,2 C 80 % 1034,7 hPa 0,0 l/m 0 min 0 min 0 W/m 0,0 km/h (0 Bft) 95,65 %
11.02.2022 20:54 2,6 C 1,7 C -2,2 C 80 % 1034,7 hPa 0,0 l/m 0 min 0 min 0 W/m 0,0 km/h (0 Bft) 97,87 %
11.02.2022 20:56 2,6 C 1,7 C -2,2 C 80 % 1034,7 hPa 0,0 l/m 0 min 0 min 0 W/m 0,0 km/h (0 Bft) 97,87 %
11.02.2022 20:58 2,6 C 1,7 C -1,7 C 80 % 1034,7 hPa 0,0 l/m 0 min 0 min 0 W/m 0,0 km/h (0 Bft) 100,00 %
11.02.2022 21:00 2,6 C 2,2 C -1,7 C 80 % 1034,7 hPa 0,0 l/m 0 min 0 min 0 W/m 0,0 km/h (0 Bft) 100,00 %
11.02.2022 21:02 2,6 C 2,2 C -1,7 C 80 % 1034,7 hPa 0,0 l/m 0 min 0 min 0 W/m 0,0 km/h (0 Bft) 97,87 %
11.02.2022 21:04 2,6 C 2,2 C -1,7 C 80 % 1034,7 hPa 0,0 l/m 0 min 0 min 0 W/m 0,0 km/h (0 Bft) 97,83 %
11.02.2022 21:06 2,6 C 2,2 C -1,7 C 80 % 1034,7 hPa 0,0 l/m 0 min 0 min 0 W/m 0,0 km/h (0 Bft) 97,87 %
11.02.2022 21:08 2,6 C 2,2 C -1,7 C 80 % 1034,7 hPa 0,0 l/m 0 min 0 min 0 W/m 0,0 km/h (0 Bft) 93,62 %
11.02.2022 21:10 2,6 C 2,2 C -1,7 C 80 % 1034,7 hPa 0,0 l/m 0 min 0 min 0 W/m 0,0 km/h (0 Bft) 97,87 %
11.02.2022 21:12 2,6 C 2,2 C -1,7 C 80 % 1034,7 hPa 0,0 l/m 0 min 0 min 0 W/m 3,2 km/h (1 Bft) 97,87 %
11.02.2022 21:14 2,6 C 2,2 C -1,7 C 80 % 1034,7 hPa 0,0 l/m 0 min 0 min 0 W/m 0,0 km/h (0 Bft) 97,87 %
11.02.2022 21:16 2,6 C 2,2 C -1,7 C 80 % 1034,8 hPa 0,0 l/m 0 min 0 min 0 W/m 0,0 km/h (0 Bft) 97,83 %
11.02.2022 21:18 2,6 C 2,2 C -1,7 C 80 % 1034,8 hPa 0,0 l/m 0 min 0 min 0 W/m 0,0 km/h (0 Bft) 95,74 %
11.02.2022 21:20 2,6 C 2,2 C -1,7 C 80 % 1034,7 hPa 0,0 l/m 0 min 0 min 0 W/m 0,0 km/h (0 Bft) 97,87 %
11.02.2022 21:22 2,6 C 2,2 C -1,7 C 80 % 1034,7 hPa 0,0 l/m 0 min 0 min 0 W/m 0,0 km/h (0 Bft) 97,87 %
11.02.2022 21:24 2,7 C 2,2 C -1,1 C 80 % 1034,7 hPa 0,0 l/m 0 min 0 min 0 W/m 0,0 km/h (0 Bft) 37,50 %
11.02.2022 21:26 2,7 C 2,2 C -1,1 C 80 % 1034,8 hPa 0,0 l/m 0 min 0 min 0 W/m 0,0 km/h (0 Bft) 97,87 %
11.02.2022 21:28 2,7 C 2,2 C -1,1 C 80 % 1034,7 hPa 0,0 l/m 0 min 0 min 0 W/m 3,2 km/h (1 Bft) 97,83 %
11.02.2022 21:30 2,8 C 2,2 C -1,1 C 80 % 1034,7 hPa 0,0 l/m 0 min 0 min 0 W/m 3,2 km/h (1 Bft) 97,87 %
11.02.2022 21:32 2,8 C 2,2 C -1,1 C 80 % 1034,8 hPa 0,0 l/m 0 min 0 min 0 W/m 0,0 km/h (0 Bft) 100,00 %
11.02.2022 21:34 2,8 C 2,2 C -1,1 C 80 % 1034,8 hPa 0,0 l/m 0 min 0 min 0 W/m 0,0 km/h (0 Bft) 97,87 %
11.02.2022 21:36 2,8 C 2,2 C -1,1 C 81 % 1034,8 hPa 0,0 l/m 0 min 0 min 0 W/m 0,0 km/h (0 Bft) 100,00 %
11.02.2022 21:38 2,8 C 2,2 C -1,1 C 81 % 1034,8 hPa 0,0 l/m 0 min 0 min 0 W/m 3,2 km/h (1 Bft) 100,00 %
11.02.2022 21:40 2,8 C 2,2 C -1,1 C 81 % 1034,8 hPa 0,0 l/m 0 min 0 min 0 W/m 0,0 km/h (0 Bft) 100,00 %
11.02.2022 21:42 2,8 C 2,2 C -1,1 C 81 % 1034,8 hPa 0,0 l/m 0 min 0 min 0 W/m 0,0 km/h (0 Bft) 100,00 %
11.02.2022 21:44 2,9 C 2,2 C -1,1 C 81 % 1034,8 hPa 0,0 l/m 0 min 0 min 0 W/m 0,0 km/h (0 Bft) 100,00 %
11.02.2022 21:46 2,9 C 2,2 C -1,1 C 81 % 1034,8 hPa 0,0 l/m 0 min 0 min 0 W/m 0,0 km/h (0 Bft) 100,00 %
11.02.2022 21:48 2,9 C 2,2 C -1,1 C 81 % 1034,8 hPa 0,0 l/m 0 min 0 min 0 W/m 0,0 km/h (0 Bft) 97,87 %
11.02.2022 21:50 2,9 C 2,2 C -1,1 C 80 % 1034,8 hPa 0,0 l/m 0 min 0 min 0 W/m 3,2 km/h (1 Bft) 100,00 %
11.02.2022 21:52 2,9 C 2,2 C -1,1 C 81 % 1034,8 hPa 0,0 l/m 0 min 0 min 0 W/m 3,2 km/h (1 Bft) 95,65 %
11.02.2022 21:54 2,9 C 2,2 C -1,1 C 81 % 1034,8 hPa 0,0 l/m 0 min 0 min 0 W/m 0,0 km/h (0 Bft) 100,00 %
11.02.2022 21:56 2,9 C 2,2 C -1,1 C 81 % 1034,9 hPa 0,0 l/m 0 min 0 min 0 W/m 0,0 km/h (0 Bft) 100,00 %
11.02.2022 21:58 2,9 C 2,2 C -1,1 C 81 % 1034,9 hPa 0,0 l/m 0 min 0 min 0 W/m 0,0 km/h (0 Bft) 100,00 %
11.02.2022 22:00 2,9 C 2,2 C -1,1 C 81 % 1034,8 hPa 0,0 l/m 0 min 0 min 0 W/m 3,2 km/h (1 Bft) 97,87 %
11.02.2022 22:02 2,9 C 2,2 C -1,1 C 81 % 1034,8 hPa 0,0 l/m 0 min 0 min 0 W/m 3,2 km/h (1 Bft) 97,87 %
11.02.2022 22:04 2,9 C 2,2 C -1,1 C 81 % 1034,9 hPa 0,0 l/m 0 min 0 min 0 W/m 3,2 km/h (1 Bft) 97,87 %
11.02.2022 22:06 2,9 C 2,2 C -1,1 C 81 % 1034,8 hPa 0,0 l/m 0 min 0 min 0 W/m 0,0 km/h (0 Bft) 97,87 %
11.02.2022 22:08 2,9 C 2,2 C -1,1 C 81 % 1034,8 hPa 0,0 l/m 0 min 0 min 0 W/m 9,7 km/h (2 Bft) 95,74 %
11.02.2022 22:10 2,9 C 2,2 C -1,1 C 81 % 1034,8 hPa 0,0 l/m 0 min 0 min 0 W/m 6,4 km/h (2 Bft) 97,87 %
11.02.2022 22:12 2,8 C 2,2 C -1,1 C 81 % 1034,9 hPa 0,0 l/m 0 min 0 min 0 W/m 3,2 km/h (1 Bft) 97,87 %
11.02.2022 22:14 2,8 C 2,2 C -1,1 C 81 % 1034,9 hPa 0,0 l/m 0 min 0 min 0 W/m 0,0 km/h (0 Bft) 97,83 %
11.02.2022 22:16 2,8 C 2,2 C -1,1 C 81 % 1034,8 hPa 0,0 l/m 0 min 0 min 0 W/m 0,0 km/h (0 Bft) 93,62 %
11.02.2022 22:18 2,8 C 1,7 C -1,1 C 81 % 1034,8 hPa 0,0 l/m 0 min 0 min 0 W/m 0,0 km/h (0 Bft) 97,87 %
11.02.2022 22:20 2,8 C 1,7 C -1,7 C 81 % 1034,8 hPa 0,0 l/m 0 min 0 min 0 W/m 0,0 km/h (0 Bft) 95,74 %
11.02.2022 22:22 2,8 C 1,7 C -1,7 C 81 % 1034,8 hPa 0,0 l/m 0 min 0 min 0 W/m 0,0 km/h (0 Bft) 97,87 %
11.02.2022 22:24 2,8 C 1,7 C -1,7 C 81 % 1034,8 hPa 0,0 l/m 0 min 0 min 0 W/m 0,0 km/h (0 Bft) 97,87 %
11.02.2022 22:26 2,7 C 1,7 C -1,7 C 81 % 1034,8 hPa 0,0 l/m 0 min 0 min 0 W/m 0,0 km/h (0 Bft) 97,83 %
11.02.2022 22:28 2,7 C 1,1 C -1,7 C 81 % 1034,8 hPa 0,0 l/m 0 min 0 min 0 W/m 0,0 km/h (0 Bft) 100,00 %
11.02.2022 22:30 2,7 C 1,1 C -1,7 C 81 % 1034,8 hPa 0,0 l/m 0 min 0 min 0 W/m 0,0 km/h (0 Bft) 100,00 %
11.02.2022 22:32 2,6 C 1,1 C -1,7 C 81 % 1034,8 hPa 0,0 l/m 0 min 0 min 0 W/m 0,0 km/h (0 Bft) 97,87 %
11.02.2022 22:34 2,6 C 1,1 C -1,7 C 81 % 1034,8 hPa 0,0 l/m 0 min 0 min 0 W/m 0,0 km/h (0 Bft) 95,74 %
11.02.2022 22:36 2,6 C 1,1 C -1,7 C 81 % 1034,8 hPa 0,0 l/m 0 min 0 min 0 W/m 0,0 km/h (0 Bft) 100,00 %
11.02.2022 22:38 2,6 C 1,1 C -2,2 C 81 % 1034,7 hPa 0,0 l/m 0 min 0 min 0 W/m 0,0 km/h (0 Bft) 100,00 %
11.02.2022 22:40 2,6 C 1,1 C -2,2 C 81 % 1034,7 hPa 0,0 l/m 0 min 0 min 0 W/m 0,0 km/h (0 Bft) 100,00 %
11.02.2022 22:42 2,5 C 0,6 C -2,2 C 81 % 1034,7 hPa 0,0 l/m 0 min 0 min 0 W/m 0,0 km/h (0 Bft) 97,87 %
11.02.2022 22:44 2,4 C 0,6 C -2,2 C 81 % 1034,7 hPa 0,0 l/m 0 min 0 min 0 W/m 0,0 km/h (0 Bft) 100,00 %
11.02.2022 22:46 2,4 C 0,6 C -2,2 C 81 % 1034,7 hPa 0,0 l/m 0 min 0 min 0 W/m 0,0 km/h (0 Bft) 100,00 %
11.02.2022 22:48 2,4 C 0,6 C -2,2 C 81 % 1034,7 hPa 0,0 l/m 0 min 0 min 0 W/m 0,0 km/h (0 Bft) 97,87 %
11.02.2022 22:50 2,3 C 0,6 C -2,2 C 81 % 1034,8 hPa 0,0 l/m 0 min 0 min 0 W/m 0,0 km/h (0 Bft) 97,87 %
11.02.2022 22:52 2,3 C 0,6 C -2,8 C 81 % 1034,7 hPa 0,0 l/m 0 min 0 min 0 W/m 0,0 km/h (0 Bft) 100,00 %
11.02.2022 22:54 2,3 C 0,6 C -2,8 C 81 % 1034,6 hPa 0,0 l/m 0 min 0 min 0 W/m 0,0 km/h (0 Bft) 100,00 %
11.02.2022 22:56 2,3 C 0,0 C -2,8 C 81 % 1034,7 hPa 0,0 l/m 0 min 0 min 0 W/m 0,0 km/h (0 Bft) 97,87 %
11.02.2022 22:58 2,2 C 0,0 C -2,8 C 81 % 1034,6 hPa 0,0 l/m 0 min 0 min 0 W/m 0,0 km/h (0 Bft) 97,87 %
11.02.2022 23:00 2,2 C 0,0 C -2,8 C 81 % 1034,7 hPa 0,0 l/m 0 min 0 min 0 W/m 0,0 km/h (0 Bft) 93,62 %
11.02.2022 23:02 2,1 C 0,0 C -3,3 C 81 % 1034,6 hPa 0,0 l/m 0 min 0 min 0 W/m 0,0 km/h (0 Bft) 48,78 %
11.02.2022 23:04 2,1 C 0,0 C -3,3 C 81 % 1034,6 hPa 0,0 l/m 0 min 0 min 0 W/m 0,0 km/h (0 Bft) 95,74 %
11.02.2022 23:06 2,0 C -0,6 C -3,3 C 81 % 1034,6 hPa 0,0 l/m 0 min 0 min 0 W/m 0,0 km/h (0 Bft) 93,62 %
11.02.2022 23:08 1,9 C -0,6 C -3,3 C 81 % 1034,6 hPa 0,0 l/m 0 min 0 min 0 W/m 0,0 km/h (0 Bft) 95,74 %
11.02.2022 23:10 1,9 C -0,6 C -3,3 C 82 % 1034,6 hPa 0,0 l/m 0 min 0 min 0 W/m 0,0 km/h (0 Bft) 95,74 %
11.02.2022 23:12 1,8 C 0,0 C -2,8 C 82 % 1034,7 hPa 0,0 l/m 0 min 0 min 0 W/m 0,0 km/h (0 Bft) 97,87 %
11.02.2022 23:14 1,7 C 0,0 C -2,8 C 83 % 1034,6 hPa 0,0 l/m 0 min 0 min 0 W/m 3,2 km/h (1 Bft) 95,74 %
11.02.2022 23:16 1,7 C 0,0 C -2,8 C 83 % 1034,6 hPa 0,0 l/m 0 min 0 min 0 W/m 3,2 km/h (1 Bft) 95,65 %
11.02.2022 23:18 1,6 C 0,0 C -2,8 C 83 % 1034,6 hPa 0,0 l/m 0 min 0 min 0 W/m 3,2 km/h (1 Bft) 93,62 %
11.02.2022 23:20 1,6 C 0,0 C -2,8 C 83 % 1034,6 hPa 0,0 l/m 0 min 0 min 0 W/m 3,2 km/h (1 Bft) 91,49 %
11.02.2022 23:22 1,6 C 0,0 C -2,8 C 84 % 1034,6 hPa 0,0 l/m 0 min 0 min 0 W/m 0,0 km/h (0 Bft) 95,74 %
11.02.2022 23:24 1,5 C 0,0 C -2,8 C 84 % 1034,6 hPa 0,0 l/m 0 min 0 min 0 W/m 3,2 km/h (1 Bft) 95,74 %
11.02.2022 23:26 1,5 C 0,0 C -2,8 C 84 % 1034,7 hPa 0,0 l/m 0 min 0 min 0 W/m 3,2 km/h (1 Bft) 95,65 %
11.02.2022 23:28 1,4 C 0,0 C -2,8 C 84 % 1034,7 hPa 0,0 l/m 0 min 0 min 0 W/m 3,2 km/h (1 Bft) 95,74 %
11.02.2022 23:30 1,4 C 0,0 C -2,8 C 84 % 1034,7 hPa 0,0 l/m 0 min 0 min 0 W/m 3,2 km/h (1 Bft) 91,49 %
11.02.2022 23:32 1,3 C 0,0 C -2,8 C 84 % 1034,6 hPa 0,0 l/m 0 min 0 min 0 W/m 3,2 km/h (1 Bft) 97,87 %
11.02.2022 23:34 1,3 C 0,6 C -2,8 C 84 % 1034,6 hPa 0,0 l/m 0 min 0 min 0 W/m 6,4 km/h (2 Bft) 97,87 %
11.02.2022 23:36 1,3 C 0,6 C -2,8 C 85 % 1034,7 hPa 0,0 l/m 0 min 0 min 0 W/m 3,2 km/h (1 Bft) 93,62 %
11.02.2022 23:38 1,3 C 0,0 C -2,2 C 85 % 1034,7 hPa 0,0 l/m 0 min 0 min 0 W/m 3,2 km/h (1 Bft) 95,65 %
11.02.2022 23:40 1,3 C 0,0 C -2,8 C 85 % 1034,6 hPa 0,0 l/m 0 min 0 min 0 W/m 3,2 km/h (1 Bft) 95,74 %
11.02.2022 23:42 1,3 C 0,0 C -2,8 C 85 % 1034,6 hPa 0,0 l/m 0 min 0 min 0 W/m 3,2 km/h (1 Bft) 93,62 %
11.02.2022 23:44 1,3 C 0,0 C -2,8 C 85 % 1034,6 hPa 0,0 l/m 0 min 0 min 0 W/m 3,2 km/h (1 Bft) 48,78 %
11.02.2022 23:46 1,2 C 0,0 C -2,8 C 85 % 1034,6 hPa 0,0 l/m 0 min 0 min 0 W/m 3,2 km/h (1 Bft) 92,31 %
11.02.2022 23:48 1,2 C 0,0 C -2,8 C 85 % 1034,6 hPa 0,0 l/m 0 min 0 min 0 W/m 3,2 km/h (1 Bft) 95,74 %
11.02.2022 23:50 1,2 C 0,0 C -2,8 C 85 % 1034,6 hPa 0,0 l/m 0 min 0 min 0 W/m 3,2 km/h (1 Bft) 95,65 %
11.02.2022 23:52 1,2 C 0,0 C -3,3 C 85 % 1034,6 hPa 0,0 l/m 0 min 0 min 0 W/m 0,0 km/h (0 Bft) 93,62 %
11.02.2022 23:54 1,2 C 0,0 C -3,3 C 85 % 1034,6 hPa 0,0 l/m 0 min 0 min 0 W/m 0,0 km/h (0 Bft) 91,49 %
11.02.2022 23:56 1,1 C 0,0 C -3,3 C 85 % 1034,6 hPa 0,0 l/m 0 min 0 min 0 W/m 3,2 km/h (1 Bft) 95,74 %
11.02.2022 23:58 1,1 C -0,6 C -3,3 C 85 % 1034,6 hPa 0,0 l/m 0 min 0 min 0 W/m 3,2 km/h (1 Bft) 93,62 %
_ Min-Zeit 23:56 23:06 23:02 14:28 00:00 - - - - 17:32 21:24
Minimum _ 1,1 C -0,6 C -3,3 C 58 % 1022,5 hPa - - - - 0,0 km/h (0 Bft) 37,50 %
_ Max-Zeit 14:26 13:48 12:32 04:10 21:56 04:54 12:08 04:54 13:02 10:10 00:26
Maximum _ 8,2 C 14,4 C 4,4 C 97 % 1034,9 hPa 0,2 l/m 4 min 2 min 580 W/m 48,3 km/h
O-NO (6 Bft)
100,00 %
Durchschnitt _ 4,2 C 4,3 C 0,7 C 82 % 1029,0 hPa #0,6 l/m #5:14 h #58 min. 196 W/m 13,7 km/h (3 Bft) 96,91 %
© 2022 W. Hausmann